| time (UTC) | temp C | wind direction | speed KPH | gust KPH | rain 1hr cm | rain 24hr cm | rain mn cm | humidity % | barometer mb |
| 20260507081744 | 13 | 346 | 8.0 | 20.9 | 0.00 | 0.36 | 0.03 | 84 | 1011.0 |
| 20260507081648 | 13 | 355 | 9.7 | 20.9 | 0.00 | 0.36 | 0.03 | 84 | 1010.9 |
| 20260507081620 | 13 | 327 | 8.0 | 20.9 | 0.00 | 0.36 | 0.03 | 85 | 1010.9 |
| 20260507081435 | 13 | 39 | 4.8 | 12.9 | 0.00 | 0.36 | 0.03 | 85 | 1010.9 |
| 20260507081348 | 13 | 350 | 4.8 | 12.9 | 0.00 | 0.36 | 0.03 | 85 | 1010.9 |
| 20260507081220 | 13 | 5 | 4.8 | 12.9 | 0.00 | 0.36 | 0.03 | 85 | 1010.9 |
| 20260507081148 | 13 | 5 | 4.8 | 12.9 | 0.00 | 0.36 | 0.03 | 85 | 1011.0 |
| 20260507081029 | 13 | 355 | 3.2 | 12.9 | 0.00 | 0.36 | 0.03 | 86 | 1011.0 |
| 20260507080947 | 13 | 342 | 4.8 | 12.9 | 0.00 | 0.36 | 0.03 | 85 | 1010.9 |
| 20260507080820 | 13 | 352 | 6.4 | 12.9 | 0.00 | 0.36 | 0.03 | 85 | 1010.9 |
| 20260507080733 | 13 | 348 | 6.4 | 12.9 | 0.00 | 0.36 | 0.03 | 85 | 1010.9 |
| 20260507080638 | 13 | 348 | 6.4 | 9.7 | 0.00 | 0.36 | 0.03 | 85 | 1010.9 |
| 20260507080524 | 13 | 338 | 4.8 | 8.0 | 0.00 | 0.36 | 0.03 | 85 | 1011.0 |
| 20260507080428 | 13 | 339 | 4.8 | 8.0 | 0.00 | 0.36 | 0.03 | 85 | 1010.9 |
| 20260507080335 | 13 | 347 | 6.4 | 8.0 | 0.00 | 0.36 | 0.03 | 85 | 1010.9 |
| 20260507080225 | 13 | 344 | 4.8 | 8.0 | 0.00 | 0.36 | 0.03 | 85 | 1010.9 |
| 20260507080135 | 13 | 352 | 3.2 | 9.7 | 0.00 | 0.36 | 0.03 | 84 | 1010.9 |
| 20260507075945 | 13 | 350 | 3.2 | 9.7 | 0.00 | 0.36 | 0.03 | 84 | 1010.9 |
| 20260507075831 | 13 | 338 | 3.2 | 9.7 | 0.00 | 0.36 | 0.03 | 84 | 1010.8 |
| 20260507075736 | 13 | 346 | 1.6 | 9.7 | 0.00 | 0.36 | 0.03 | 84 | 1010.7 |
| 20260507075637 | 13 | 19 | 1.6 | 9.7 | 0.00 | 0.36 | 0.03 | 84 | 1010.7 |
| 20260507075528 | 13 | 21 | 3.2 | 9.7 | 0.00 | 0.36 | 0.03 | 84 | 1010.6 |
| 20260507075433 | 13 | 20 | 4.8 | 9.7 | 0.00 | 0.36 | 0.03 | 83 | 1010.6 |
| 20260507075345 | 13 | 352 | 4.8 | 9.7 | 0.00 | 0.36 | 0.03 | 83 | 1010.7 |
| 20260507075227 | 13 | 38 | 3.2 | 12.9 | 0.00 | 0.36 | 0.03 | 83 | 1010.8 |
| 20260507075126 | 13 | 5 | 4.8 | 12.9 | 0.00 | 0.36 | 0.03 | 83 | 1010.9 |
| 20260507075042 | 13 | 9 | 3.2 | 12.9 | 0.00 | 0.36 | 0.03 | 83 | 1010.9 |
| 20260507074941 | 13 | 19 | 4.8 | 19.3 | 0.00 | 0.36 | 0.03 | 83 | 1010.8 |
| 20260507074823 | 13 | 15 | 4.8 | 19.3 | 0.00 | 0.36 | 0.03 | 83 | 1010.9 |
| 20260507074719 | 13 | 30 | 4.8 | 19.3 | 0.00 | 0.36 | 0.03 | 83 | 1010.8 |
| 20260507074639 | 13 | 30 | 4.8 | 19.3 | 0.00 | 0.36 | 0.03 | 83 | 1010.9 |
| 20260507074603 | 13 | 352 | 8.0 | 19.3 | 0.00 | 0.36 | 0.03 | 83 | 1010.9 |
| 20260507074447 | 13 | 9 | 6.4 | 19.3 | 0.00 | 0.36 | 0.03 | 83 | 1010.8 |
| 20260507074323 | 13 | 23 | 8.0 | 19.3 | 0.00 | 0.36 | 0.03 | 83 | 1010.9 |
| 20260507074238 | 13 | 352 | 8.0 | 19.3 | 0.00 | 0.36 | 0.03 | 83 | 1010.9 |
| 20260507074148 | 13 | 332 | 4.8 | 20.9 | 0.00 | 0.36 | 0.03 | 83 | 1011.0 |
| 20260507074022 | 13 | 327 | 4.8 | 20.9 | 0.00 | 0.36 | 0.03 | 84 | 1011.0 |
| 20260507073920 | 13 | 9 | 4.8 | 20.9 | 0.00 | 0.36 | 0.03 | 84 | 1010.9 |
| 20260507073848 | 13 | 336 | 4.8 | 20.9 | 0.00 | 0.36 | 0.03 | 84 | 1010.9 |
| 20260507073722 | 14 | 16 | 4.8 | 20.9 | 0.00 | 0.36 | 0.03 | 84 | 1011.0 |
| 20260507073644 | 14 | 321 | 8.0 | 20.9 | 0.00 | 0.36 | 0.03 | 84 | 1011.0 |
| 20260507073527 | 14 | 330 | 9.7 | 20.9 | 0.00 | 0.36 | 0.03 | 84 | 1010.9 |
| 20260507073445 | 14 | 337 | 9.7 | 20.9 | 0.00 | 0.36 | 0.03 | 84 | 1010.9 |
| 20260507073321 | 14 | 307 | 11.3 | 20.9 | 0.00 | 0.36 | 0.03 | 84 | 1010.9 |
| 20260507073241 | 14 | 344 | 11.3 | 19.3 | 0.00 | 0.36 | 0.03 | 85 | 1010.8 |
| 20260507073115 | 14 | 346 | 12.9 | 19.3 | 0.00 | 0.36 | 0.03 | 85 | 1010.7 |
| 20260507073111 | 14 | 329 | 11.3 | 19.3 | 0.00 | 0.36 | 0.03 | 86 | 1010.7 |
| 20260507072919 | 14 | 329 | 9.7 | 19.3 | 0.00 | 0.36 | 0.03 | 86 | 1010.8 |
| 20260507072845 | 14 | 352 | 9.7 | 19.3 | 0.00 | 0.36 | 0.03 | 86 | 1010.9 |
| 20260507072747 | 14 | 320 | 9.7 | 19.3 | 0.00 | 0.36 | 0.03 | 87 | 1010.8 |
| 20260507072632 | 14 | 342 | 9.7 | 22.5 | 0.00 | 0.36 | 0.03 | 87 | 1011.2 |
| 20260507072526 | 14 | 342 | 11.3 | 22.5 | 0.00 | 0.36 | 0.03 | 88 | 1011.1 |
| 20260507072443 | 14 | 5 | 9.7 | 22.5 | 0.00 | 0.36 | 0.03 | 88 | 1011.1 |
| 20260507072341 | 14 | 280 | 9.7 | 22.5 | 0.00 | 0.36 | 0.03 | 88 | 1011.0 |
| 20260507072226 | 14 | 344 | 11.3 | 22.5 | 0.00 | 0.36 | 0.03 | 88 | 1011.0 |
| 20260507072142 | 14 | 333 | 12.9 | 22.5 | 0.00 | 0.36 | 0.03 | 88 | 1011.0 |
| 20260507072020 | 14 | 342 | 11.3 | 22.5 | 0.00 | 0.36 | 0.03 | 88 | 1011.0 |
| 20260507071930 | 14 | 352 | 11.3 | 22.5 | 0.00 | 0.36 | 0.03 | 88 | 1010.9 |
| 20260507071845 | 14 | 335 | 11.3 | 22.5 | 0.00 | 0.36 | 0.03 | 88 | 1010.8 |
| 20260507071741 | 14 | 329 | 11.3 | 22.5 | 0.00 | 0.36 | 0.03 | 88 | 1010.8 |
| 20260507071645 | 14 | 16 | 11.3 | 22.5 | 0.00 | 0.36 | 0.03 | 88 | 1010.9 |
| 20260507071631 | 14 | 323 | 9.7 | 22.5 | 0.00 | 0.36 | 0.03 | 88 | 1010.7 |
| 20260507071420 | 14 | 332 | 9.7 | 22.5 | 0.00 | 0.36 | 0.03 | 88 | 1010.7 |
| 20260507071344 | 14 | 315 | 11.3 | 22.5 | 0.00 | 0.36 | 0.03 | 88 | 1010.6 |
| 20260507071242 | 14 | 323 | 9.7 | 19.3 | 0.00 | 0.36 | 0.03 | 88 | 1010.6 |
| 20260507071127 | 14 | 348 | 9.7 | 19.3 | 0.00 | 0.36 | 0.03 | 88 | 1010.5 |
| 20260507071025 | 14 | 342 | 9.7 | 19.3 | 0.00 | 0.36 | 0.03 | 88 | 1010.4 |
| 20260507070934 | 14 | 360 | 6.4 | 14.5 | 0.00 | 0.36 | 0.03 | 88 | 1010.4 |
| 20260507070842 | 14 | 335 | 6.4 | 14.5 | 0.00 | 0.36 | 0.03 | 89 | 1010.5 |
| 20260507070744 | 14 | 306 | 9.7 | 14.5 | 0.00 | 0.36 | 0.03 | 89 | 1010.4 |
| 20260507070635 | 14 | 315 | 9.7 | 14.5 | 0.00 | 0.36 | 0.03 | 89 | 1010.4 |
| 20260507070519 | 14 | 319 | 8.0 | 12.9 | 0.00 | 0.36 | 0.03 | 89 | 1010.3 |
| 20260507070419 | 14 | 315 | 8.0 | 12.9 | 0.00 | 0.36 | 0.03 | 89 | 1010.3 |
| 20260507070327 | 14 | 339 | 4.8 | 12.9 | 0.00 | 0.36 | 0.03 | 89 | 1010.3 |
| 20260507070225 | 14 | 320 | 3.2 | 12.9 | 0.00 | 0.36 | 0.03 | 89 | 1010.4 |
| 20260507070155 | 14 | 286 | 4.8 | 12.9 | 0.00 | 0.36 | 0.03 | 89 | 1010.4 |
| 20260507070049 | 14 | 236 | 6.4 | 12.9 | 0.00 | 0.36 | 0.03 | 89 | 1010.2 |
| 20260507065924 | 14 | 281 | 6.4 | 12.9 | 0.00 | 0.36 | 0.03 | 89 | 1010.2 |
| 20260507065846 | 14 | 298 | 4.8 | 12.9 | 0.00 | 0.36 | 0.03 | 89 | 1010.0 |
| 20260507065735 | 14 | 321 | 4.8 | 12.9 | 0.00 | 0.36 | 0.03 | 89 | 1009.9 |
| 20260507065635 | 14 | 348 | 4.8 | 14.5 | 0.00 | 0.36 | 0.03 | 89 | 1009.9 |
| 20260507065533 | 14 | 9 | 4.8 | 14.5 | 0.00 | 0.36 | 0.03 | 89 | 1009.8 |
| 20260507065423 | 14 | 360 | 4.8 | 14.5 | 0.00 | 0.36 | 0.03 | 89 | 1009.8 |
| 20260507065322 | 14 | 352 | 4.8 | 14.5 | 0.00 | 0.36 | 0.03 | 89 | 1009.8 |
| 20260507065232 | 14 | 352 | 6.4 | 14.5 | 0.00 | 0.36 | 0.03 | 88 | 1009.9 |
| 20260507065150 | 14 | 341 | 4.8 | 14.5 | 0.00 | 0.36 | 0.03 | 88 | 1010.0 |
| 20260507065032 | 14 | 312 | 4.8 | 14.5 | 0.00 | 0.36 | 0.03 | 88 | 1009.9 |
| 20260507064940 | 15 | 324 | 6.4 | 14.5 | 0.00 | 0.36 | 0.03 | 88 | 1009.8 |
| 20260507064845 | 15 | 352 | 4.8 | 14.5 | 0.00 | 0.36 | 0.03 | 88 | 1009.8 |
| 20260507064729 | 15 | 352 | 6.4 | 12.9 | 0.00 | 0.36 | 0.03 | 88 | 1009.7 |
| 20260507064639 | 15 | 352 | 6.4 | 12.9 | 0.00 | 0.36 | 0.03 | 88 | 1009.5 |
| 20260507064559 | 15 | 352 | 6.4 | 12.9 | 0.00 | 0.36 | 0.03 | 88 | 1009.7 |
| 20260507064423 | 15 | 352 | 6.4 | 12.9 | 0.00 | 0.36 | 0.03 | 88 | 1009.6 |
| 20260507064328 | 15 | 328 | 6.4 | 12.9 | 0.00 | 0.36 | 0.03 | 88 | 1009.6 |
| 20260507064231 | 15 | 352 | 4.8 | 12.9 | 0.00 | 0.36 | 0.03 | 88 | 1009.7 |
| 20260507064127 | 15 | 342 | 6.4 | 16.1 | 0.00 | 0.36 | 0.03 | 88 | 1009.6 |
| 20260507064040 | 15 | 323 | 6.4 | 16.1 | 0.00 | 0.36 | 0.03 | 88 | 1009.6 |
| 20260507063924 | 15 | 5 | 4.8 | 16.1 | 0.00 | 0.36 | 0.03 | 88 | 1009.5 |
| 20260507063839 | 15 | 21 | 4.8 | 16.1 | 0.00 | 0.36 | 0.03 | 88 | 1009.4 |
| 20260507063744 | 15 | 19 | 6.4 | 16.1 | 0.00 | 0.36 | 0.03 | 88 | 1009.4 |
| 20260507063645 | 15 | 21 | 4.8 | 16.1 | 0.00 | 0.36 | 0.03 | 88 | 1009.4 |
| 20260507063520 | 15 | 44 | 3.2 | 16.1 | 0.00 | 0.36 | 0.03 | 88 | 1009.5 |
| 20260507063445 | 15 | 329 | 6.4 | 16.1 | 0.00 | 0.36 | 0.03 | 88 | 1009.4 |
| 20260507063319 | 15 | 13 | 8.0 | 16.1 | 0.00 | 0.36 | 0.03 | 88 | 1009.4 |
| 20260507063238 | 15 | 332 | 8.0 | 16.1 | 0.00 | 0.36 | 0.03 | 88 | 1009.5 |
| 20260507063128 | 15 | 9 | 9.7 | 16.1 | 0.00 | 0.36 | 0.03 | 88 | 1009.5 |
| 20260507063055 | 15 | 344 | 8.0 | 17.7 | 0.00 | 0.36 | 0.03 | 88 | 1009.5 |
| 20260507062930 | 15 | 336 | 6.4 | 17.7 | 0.00 | 0.36 | 0.03 | 88 | 1009.4 |
| 20260507062847 | 15 | 333 | 4.8 | 17.7 | 0.00 | 0.36 | 0.03 | 88 | 1009.3 |
| 20260507062747 | 15 | 22 | 4.8 | 17.7 | 0.00 | 0.36 | 0.03 | 88 | 1009.4 |
| 20260507062619 | 15 | 40 | 6.4 | 17.7 | 0.00 | 0.36 | 0.03 | 88 | 1009.3 |
| 20260507062547 | 15 | 360 | 6.4 | 17.7 | 0.00 | 0.36 | 0.03 | 89 | 1009.2 |
| 20260507062441 | 15 | 26 | 6.4 | 17.7 | 0.00 | 0.36 | 0.03 | 89 | 1009.2 |
| 20260507062341 | 15 | 46 | 9.7 | 17.7 | 0.00 | 0.36 | 0.03 | 89 | 1009.3 |
| 20260507062228 | 15 | 333 | 9.7 | 17.7 | 0.03 | 0.36 | 0.03 | 89 | 1009.4 |
| 20260507062134 | 15 | 348 | 4.8 | 12.9 | 0.03 | 0.36 | 0.03 | 90 | 1009.5 |
| 20260507062036 | 15 | 344 | 3.2 | 9.7 | 0.03 | 0.36 | 0.03 | 89 | 1009.5 |
| 20260507061948 | 15 | 22 | 3.2 | 12.9 | 0.03 | 0.36 | 0.03 | 90 | 1009.4 |
| 20260507061845 | 15 | 10 | 1.6 | 12.9 | 0.03 | 0.36 | 0.03 | 89 | 1009.4 |
| 20260507061738 | 15 | 360 | 3.2 | 12.9 | 0.03 | 0.36 | 0.03 | 89 | 1009.2 |
| 20260507061656 | 15 | 352 | 3.2 | 12.9 | 0.03 | 0.36 | 0.03 | 89 | 1009.3 |
| 20260507061653 | 15 | 13 | 4.8 | 12.9 | 0.03 | 0.36 | 0.03 | 89 | 1009.5 |
| 20260507061434 | 15 | 344 | 4.8 | 12.9 | 0.03 | 0.36 | 0.03 | 89 | 1009.6 |
| 20260507061328 | 15 | 344 | 4.8 | 12.9 | 0.03 | 0.36 | 0.03 | 89 | 1009.5 |
| 20260507061222 | 15 | 360 | 6.4 | 12.9 | 0.03 | 0.36 | 0.03 | 89 | 1009.4 |
| 20260507061130 | 15 | 360 | 4.8 | 14.5 | 0.03 | 0.36 | 0.03 | 89 | 1009.5 |
| 20260507061040 | 15 | 44 | 3.2 | 14.5 | 0.03 | 0.36 | 0.03 | 89 | 1009.5 |
| 20260507060941 | 15 | 15 | 4.8 | 14.5 | 0.03 | 0.36 | 0.03 | 89 | 1009.5 |
| 20260507060840 | 15 | 24 | 4.8 | 14.5 | 0.03 | 0.36 | 0.03 | 89 | 1009.5 |
| 20260507060723 | 15 | 349 | 4.8 | 14.5 | 0.03 | 0.36 | 0.03 | 89 | 1009.7 |
| 20260507060623 | 15 | 31 | 6.4 | 14.5 | 0.03 | 0.36 | 0.03 | 89 | 1009.7 |
| 20260507060517 | 15 | 35 | 6.4 | 14.5 | 0.03 | 0.36 | 0.03 | 89 | 1009.6 |
| 20260507060445 | 15 | 9 | 8.0 | 14.5 | 0.03 | 0.36 | 0.03 | 88 | 1009.7 |
| 20260507060326 | 16 | 5 | 6.4 | 14.5 | 0.03 | 0.36 | 0.03 | 88 | 1009.7 |
| 20260507060247 | 16 | 12 | 4.8 | 14.5 | 0.03 | 0.36 | 0.03 | 88 | 1009.8 |
| 20260507060203 | 16 | 360 | 6.4 | 14.5 | 0.03 | 0.36 | 0.03 | 88 | 1009.9 |
| 20260507060134 | 16 | 342 | 8.0 | 14.5 | 0.03 | 0.36 | 0.03 | 88 | 1010.1 |
| 20260507055916 | 16 | 334 | 6.4 | 14.5 | 0.03 | 0.36 | 0.03 | 88 | 1010.1 |
| 20260507055837 | 16 | 339 | 4.8 | 14.5 | 0.03 | 0.36 | 0.03 | 88 | 1010.1 |
| 20260507055729 | 16 | 342 | 6.4 | 14.5 | 0.03 | 0.36 | 0.03 | 88 | 1010.1 |
| 20260507055630 | 16 | 325 | 6.4 | 14.5 | 0.03 | 0.36 | 0.03 | 88 | 1010.0 |
| 20260507055534 | 16 | 298 | 6.4 | 14.5 | 0.03 | 0.36 | 0.03 | 88 | 1010.1 |
| 20260507055435 | 16 | 321 | 6.4 | 14.5 | 0.03 | 0.36 | 0.03 | 88 | 1010.0 |
| 20260507055336 | 16 | 323 | 8.0 | 14.5 | 0.03 | 0.36 | 0.03 | 87 | 1010.1 |
| 20260507055220 | 16 | 317 | 9.7 | 14.5 | 0.03 | 0.36 | 0.03 | 87 | 1010.0 |
| 20260507055142 | 16 | 329 | 9.7 | 14.5 | 0.03 | 0.36 | 0.03 | 87 | 1010.0 |
| 20260507055008 | 16 | 327 | 8.0 | 14.5 | 0.03 | 0.36 | 0.03 | 87 | 1010.1 |
| 20260507055004 | 16 | 300 | 8.0 | 14.5 | 0.03 | 0.36 | 0.03 | 87 | 1010.1 |
| 20260507054818 | 16 | 336 | 9.7 | 14.5 | 0.03 | 0.36 | 0.03 | 87 | 1010.2 |
| 20260507054728 | 16 | 299 | 8.0 | 14.5 | 0.03 | 0.36 | 0.03 | 87 | 1010.2 |
| 20260507054635 | 16 | 319 | 8.0 | 12.9 | 0.03 | 0.36 | 0.03 | 87 | 1010.0 |
| 20260507054617 | 16 | 321 | 8.0 | 12.9 | 0.03 | 0.36 | 0.03 | 87 | 1009.9 |
| 20260507054440 | 16 | 323 | 8.0 | 12.9 | 0.03 | 0.36 | 0.03 | 87 | 1009.9 |
| 20260507054328 | 16 | 321 | 6.4 | 12.9 | 0.03 | 0.36 | 0.03 | 87 | 1009.9 |
| 20260507054230 | 16 | 333 | 4.8 | 8.0 | 0.03 | 0.36 | 0.03 | 87 | 1009.8 |
| 20260507054117 | 16 | 340 | 3.2 | 6.4 | 0.03 | 0.36 | 0.03 | 87 | 1009.6 |
| 20260507054032 | 16 | 342 | 3.2 | 9.7 | 0.03 | 0.36 | 0.03 | 86 | 1009.7 |
| 20260507053937 | 16 | 342 | 3.2 | 9.7 | 0.03 | 0.36 | 0.03 | 87 | 1009.7 |
| 20260507053844 | 16 | 321 | 3.2 | 9.7 | 0.03 | 0.36 | 0.03 | 87 | 1009.7 |
| 20260507053718 | 16 | 346 | 1.6 | 12.9 | 0.03 | 0.36 | 0.03 | 87 | 1009.8 |
| 20260507053642 | 16 | 350 | 1.6 | 12.9 | 0.03 | 0.36 | 0.03 | 86 | 1009.8 |
| 20260507053532 | 16 | 332 | 1.6 | 12.9 | 0.03 | 0.36 | 0.03 | 86 | 1009.8 |
| 20260507053438 | 16 | 350 | 1.6 | 12.9 | 0.03 | 0.36 | 0.03 | 86 | 1009.8 |
| 20260507053317 | 16 | 350 | 3.2 | 12.9 | 0.03 | 0.36 | 0.03 | 86 | 1009.8 |
| 20260507053248 | 16 | 350 | 4.8 | 12.9 | 0.03 | 0.36 | 0.03 | 87 | 1009.9 |
| 20260507053116 | 16 | 348 | 3.2 | 12.9 | 0.03 | 0.36 | 0.03 | 87 | 1009.9 |
| 20260507053113 | 16 | 350 | 4.8 | 12.9 | 0.03 | 0.36 | 0.03 | 86 | 1009.8 |
| 20260507052919 | 16 | 9 | 6.4 | 12.9 | 0.03 | 0.36 | 0.03 | 86 | 1009.9 |
| 20260507052826 | 16 | 340 | 4.8 | 12.9 | 0.03 | 0.36 | 0.03 | 87 | 1009.9 |
| 20260507052729 | 16 | 335 | 3.2 | 12.9 | 0.03 | 0.36 | 0.03 | 87 | 1010.1 |
| 20260507052628 | 16 | 298 | 3.2 | 12.9 | 0.03 | 0.36 | 0.03 | 87 | 1010.2 |
| 20260507052537 | 17 | 298 | 4.8 | 12.9 | 0.03 | 0.36 | 0.03 | 87 | 1010.3 |
| 20260507052437 | 17 | 314 | 6.4 | 12.9 | 0.03 | 0.36 | 0.03 | 86 | 1010.4 |
| 20260507052314 | 17 | 322 | 4.8 | 14.5 | 0.00 | 0.33 | 0.00 | 86 | 1010.3 |
| 20260507052220 | 17 | 300 | 4.8 | 14.5 | 0.00 | 0.33 | 0.00 | 86 | 1010.3 |
| 20260507052122 | 17 | 286 | 6.4 | 14.5 | 0.00 | 0.33 | 0.00 | 86 | 1010.2 |
| 20260507052042 | 17 | 340 | 6.4 | 14.5 | 0.00 | 0.33 | 0.00 | 86 | 1010.2 |
| 20260507051934 | 17 | 313 | 6.4 | 14.5 | 0.00 | 0.33 | 0.00 | 86 | 1010.2 |
| 20260507051834 | 17 | 326 | 6.4 | 14.5 | 0.00 | 0.33 | 0.00 | 87 | 1010.2 |
| 20260507051732 | 17 | 346 | 6.4 | 14.5 | 0.00 | 0.33 | 0.00 | 87 | 1010.3 |
| 20260507051630 | 17 | 321 | 6.4 | 14.5 | 0.00 | 0.33 | 0.00 | 87 | 1010.3 |
| 20260507051422 | 17 | 307 | 4.8 | 12.9 | 0.00 | 0.33 | 0.00 | 88 | 1010.2 |
| 20260507051332 | 17 | 336 | 6.4 | 12.9 | 0.00 | 0.33 | 0.00 | 88 | 1010.2 |
| 20260507051235 | 17 | 348 | 8.0 | 12.9 | 0.00 | 0.33 | 0.00 | 88 | 1010.2 |
| 20260507051133 | 17 | 352 | 6.4 | 12.9 | 0.00 | 0.33 | 0.00 | 88 | 1010.2 |
| 20260507051036 | 17 | 338 | 4.8 | 9.7 | 0.00 | 0.33 | 0.00 | 88 | 1010.2 |
| 20260507050935 | 17 | 348 | 4.8 | 9.7 | 0.00 | 0.33 | 0.00 | 88 | 1010.2 |
| 20260507050819 | 17 | 336 | 4.8 | 9.7 | 0.00 | 0.33 | 0.00 | 89 | 1010.3 |
| 20260507050728 | 17 | 262 | 3.2 | 9.7 | 0.00 | 0.33 | 0.00 | 89 | 1010.4 |
| 20260507050618 | 17 | 310 | 3.2 | 11.3 | 0.00 | 0.33 | 0.00 | 89 | 1010.3 |
| 20260507050515 | 17 | 321 | 3.2 | 11.3 | 0.00 | 0.33 | 0.00 | 89 | 1010.3 |
| 20260507050434 | 17 | 320 | 4.8 | 11.3 | 0.00 | 0.33 | 0.00 | 89 | 1010.3 |
| 20260507050340 | 17 | 302 | 4.8 | 11.3 | 0.00 | 0.33 | 0.00 | 89 | 1010.3 |
| 20260507050240 | 17 | 333 | 6.4 | 11.3 | 0.00 | 0.33 | 0.00 | 89 | 1010.3 |
| 20260507050144 | 17 | 306 | 4.8 | 11.3 | 0.00 | 0.33 | 0.00 | 89 | 1010.3 |
| 20260507050124 | 17 | 326 | 3.2 | 9.7 | 0.00 | 0.33 | 0.00 | 89 | 1010.3 |
| 20260507045928 | 17 | 329 | 3.2 | 9.7 | 0.00 | 0.33 | 0.00 | 90 | 1010.3 |
| 20260507045815 | 17 | 329 | 3.2 | 9.7 | 0.00 | 0.33 | 0.00 | 90 | 1010.2 |
| 20260507045734 | 17 | 13 | 3.2 | 9.7 | 0.00 | 0.33 | 0.00 | 90 | 1010.2 |
| 20260507045624 | 17 | 343 | 4.8 | 9.7 | 0.00 | 0.33 | 0.00 | 90 | 1010.2 |
| 20260507045529 | 17 | 348 | 6.4 | 9.7 | 0.00 | 0.33 | 0.00 | 90 | 1010.2 |
| 20260507045432 | 17 | 333 | 6.4 | 9.7 | 0.00 | 0.33 | 0.00 | 90 | 1010.2 |
| 20260507045330 | 17 | 15 | 4.8 | 9.7 | 0.00 | 0.33 | 0.00 | 90 | 1010.1 |
| 20260507045205 | 17 | 351 | 3.2 | 8.0 | 0.00 | 0.33 | 0.00 | 90 | 1010.1 |
| 20260507045130 | 17 | 333 | 3.2 | 4.8 | 0.00 | 0.33 | 0.00 | 90 | 1010.0 |
| 20260507045021 | 17 | 313 | 3.2 | 4.8 | 0.00 | 0.33 | 0.00 | 90 | 1010.0 |
| 20260507044935 | 17 | 306 | 1.6 | 4.8 | 0.00 | 0.33 | 0.00 | 90 | 1010.1 |
| 20260507044819 | 17 | 220 | 1.6 | 3.2 | 0.00 | 0.33 | 0.00 | 90 | 1010.1 |
| 20260507044718 | 17 | 220 | 0.0 | 3.2 | 0.00 | 0.33 | 0.00 | 89 | 1010.1 |
| 20260507044708 | 17 | 220 | 0.0 | 1.6 | 0.00 | 0.33 | 0.00 | 89 | 1010.1 |
| 20260507044621 | 17 | 220 | 0.0 | 1.6 | 0.00 | 0.33 | 0.00 | 89 | 1010.1 |
| 20260507044434 | 17 | 220 | 0.0 | 1.6 | 0.00 | 0.33 | 0.00 | 89 | 1010.1 |
| 20260507044314 | 17 | 220 | 0.0 | 1.6 | 0.00 | 0.33 | 0.00 | 89 | 1010.1 |
| 20260507044241 | 17 | 220 | 0.0 | 1.6 | 0.00 | 0.33 | 0.00 | 89 | 1010.1 |
| 20260507044132 | 17 | 220 | 0.0 | 1.6 | 0.00 | 0.33 | 0.00 | 89 | 1010.2 |
| 20260507044012 | 17 | 220 | 0.0 | 1.6 | 0.00 | 0.33 | 0.00 | 89 | 1010.2 |
| 20260507043949 | 17 | 220 | 0.0 | 1.6 | 0.00 | 0.33 | 0.00 | 89 | 1010.2 |
| 20260507043820 | 17 | 220 | 0.0 | 1.6 | 0.00 | 0.33 | 0.00 | 89 | 1010.1 |
| 20260507043732 | 17 | 220 | 0.0 | 1.6 | 0.00 | 0.33 | 0.00 | 90 | 1010.2 |
| 20260507043617 | 17 | 220 | 0.0 | 1.6 | 0.00 | 0.33 | 0.00 | 89 | 1010.2 |
| 20260507043527 | 17 | 220 | 0.0 | 1.6 | 0.00 | 0.33 | 0.00 | 89 | 1010.1 |
| 20260507043417 | 17 | 220 | 0.0 | 1.6 | 0.00 | 0.33 | 0.00 | 89 | 1010.1 |
| 20260507043340 | 17 | 220 | 0.0 | 1.6 | 0.00 | 0.33 | 0.00 | 89 | 1010.1 |
| 20260507043235 | 17 | 220 | 0.0 | 1.6 | 0.00 | 0.33 | 0.00 | 89 | 1010.2 |
| 20260507043205 | 17 | 220 | 0.0 | 1.6 | 0.00 | 0.33 | 0.00 | 90 | 1010.1 |
| 20260507043139 | 17 | 220 | 0.0 | 1.6 | 0.00 | 0.33 | 0.00 | 90 | 1010.1 |
| 20260507042919 | 17 | 220 | 0.0 | 1.6 | 0.00 | 0.33 | 0.00 | 90 | 1010.1 |
| 20260507042821 | 17 | 220 | 0.0 | 1.6 | 0.00 | 0.33 | 0.00 | 90 | 1010.1 |
| 20260507042742 | 17 | 220 | 0.0 | 1.6 | 0.00 | 0.33 | 0.00 | 90 | 1010.1 |
| 20260507042623 | 17 | 220 | 0.0 | 1.6 | 0.00 | 0.33 | 0.00 | 90 | 1010.0 |
| 20260507042526 | 17 | 220 | 0.0 | 1.6 | 0.00 | 0.33 | 0.00 | 89 | 1010.1 |
| 20260507042426 | 17 | 220 | 0.0 | 1.6 | 0.00 | 0.33 | 0.00 | 89 | 1010.0 |
| 20260507042339 | 17 | 220 | 0.0 | 1.6 | 0.00 | 0.33 | 0.00 | 89 | 1010.0 |
| 20260507042218 | 17 | 220 | 0.0 | 1.6 | 0.00 | 0.33 | 0.00 | 89 | 1010.0 |
| 20260507042141 | 17 | 220 | 0.0 | 1.6 | 0.00 | 0.33 | 0.00 | 89 | 1010.0 |
| 20260507042024 | 17 | 220 | 0.0 | 1.6 | 0.00 | 0.33 | 0.00 | 89 | 1010.0 |
| 20260507041926 | 17 | 220 | 0.0 | 1.6 | 0.00 | 0.33 | 0.00 | 89 | 1010.0 |
| 20260507041838 | 17 | 220 | 0.0 | 1.6 | 0.00 | 0.33 | 0.00 | 89 | 1009.9 |
| 20260507041721 | 17 | 220 | 0.0 | 1.6 | 0.00 | 0.33 | 0.00 | 89 | 1010.0 |
| 20260507041653 | 17 | 220 | 0.0 | 1.6 | 0.00 | 0.33 | 0.00 | 89 | 1009.9 |
| 20260507041428 | 17 | 220 | 0.0 | 1.6 | 0.00 | 0.33 | 0.00 | 89 | 1009.9 |
| 20260507041334 | 17 | 220 | 0.0 | 1.6 | 0.00 | 0.33 | 0.00 | 89 | 1009.9 |
| 20260507041233 | 17 | 220 | 0.0 | 1.6 | 0.00 | 0.33 | 0.00 | 89 | 1009.9 |
| 20260507041124 | 17 | 220 | 0.0 | 1.6 | 0.00 | 0.33 | 0.00 | 89 | 1009.9 |
| 20260507041027 | 17 | 220 | 0.0 | 1.6 | 0.00 | 0.33 | 0.00 | 89 | 1009.8 |
| 20260507040939 | 17 | 220 | 0.0 | 1.6 | 0.00 | 0.33 | 0.00 | 89 | 1009.9 |
| 20260507040823 | 17 | 220 | 0.0 | 1.6 | 0.00 | 0.33 | 0.00 | 88 | 1009.8 |
| 20260507040726 | 17 | 220 | 0.0 | 1.6 | 0.00 | 0.33 | 0.00 | 88 | 1009.9 |
| 20260507040614 | 17 | 220 | 0.0 | 1.6 | 0.00 | 0.33 | 0.00 | 89 | 1009.8 |
| 20260507040533 | 17 | 220 | 0.0 | 1.6 | 0.00 | 0.33 | 0.00 | 89 | 1009.9 |
| 20260507040436 | 17 | 220 | 0.0 | 1.6 | 0.00 | 0.33 | 0.00 | 89 | 1009.8 |
| 20260507040328 | 17 | 220 | 0.0 | 1.6 | 0.00 | 0.33 | 0.00 | 89 | 1009.8 |
| 20260507040223 | 17 | 220 | 0.0 | 1.6 | 0.00 | 0.33 | 0.00 | 89 | 1009.8 |
| 20260507040100 | 17 | 220 | 0.0 | 1.6 | 0.00 | 0.33 | 0.00 | 89 | 1009.8 |
| 20260507035918 | 17 | 220 | 0.0 | 1.6 | 0.00 | 0.33 | 0.33 | 89 | 1009.8 |
| 20260507035832 | 17 | 220 | 0.0 | 1.6 | 0.00 | 0.33 | 0.33 | 89 | 1009.8 |
| 20260507035726 | 17 | 220 | 0.0 | 3.2 | 0.00 | 0.33 | 0.33 | 89 | 1009.8 |
| 20260507035622 | 17 | 220 | 0.0 | 3.2 | 0.00 | 0.33 | 0.33 | 89 | 1009.8 |
| 20260507035522 | 17 | 220 | 0.0 | 3.2 | 0.00 | 0.33 | 0.33 | 89 | 1009.8 |
| 20260507035419 | 17 | 220 | 0.0 | 3.2 | 0.00 | 0.33 | 0.33 | 89 | 1009.8 |
| 20260507035317 | 17 | 220 | 0.0 | 3.2 | 0.00 | 0.33 | 0.33 | 89 | 1009.8 |
| 20260507035229 | 17 | 220 | 0.0 | 3.2 | 0.00 | 0.33 | 0.33 | 89 | 1009.7 |
| 20260507035124 | 17 | 220 | 0.0 | 3.2 | 0.00 | 0.33 | 0.33 | 89 | 1009.7 |
| 20260507035018 | 17 | 220 | 0.0 | 3.2 | 0.00 | 0.33 | 0.33 | 89 | 1009.8 |
| 20260507034922 | 17 | 220 | 0.0 | 3.2 | 0.00 | 0.33 | 0.33 | 89 | 1009.8 |
| 20260507034818 | 17 | 220 | 0.0 | 3.2 | 0.00 | 0.33 | 0.33 | 89 | 1009.8 |
| 20260507034742 | 17 | 220 | 0.0 | 3.2 | 0.00 | 0.33 | 0.33 | 89 | 1009.8 |
| 20260507034628 | 17 | 220 | 0.0 | 3.2 | 0.00 | 0.33 | 0.33 | 89 | 1009.9 |
| 20260507034440 | 17 | 220 | 0.0 | 3.2 | 0.00 | 0.33 | 0.33 | 89 | 1010.0 |
| 20260507034338 | 17 | 220 | 0.0 | 3.2 | 0.00 | 0.33 | 0.33 | 89 | 1010.0 |
| 20260507034236 | 17 | 220 | 0.0 | 3.2 | 0.00 | 0.33 | 0.33 | 88 | 1010.0 |
| 20260507034114 | 17 | 220 | 0.0 | 3.2 | 0.00 | 0.33 | 0.33 | 88 | 1010.1 |
| 20260507034017 | 17 | 220 | 0.0 | 3.2 | 0.00 | 0.33 | 0.33 | 88 | 1010.1 |
| 20260507033930 | 17 | 220 | 0.0 | 3.2 | 0.00 | 0.33 | 0.33 | 88 | 1010.2 |
| 20260507033815 | 17 | 220 | 0.0 | 3.2 | 0.00 | 0.33 | 0.33 | 88 | 1010.2 |
| 20260507033725 | 17 | 220 | 0.0 | 3.2 | 0.00 | 0.33 | 0.33 | 88 | 1010.2 |
| 20260507033617 | 17 | 220 | 0.0 | 1.6 | 0.00 | 0.33 | 0.33 | 88 | 1010.2 |
| 20260507033515 | 17 | 220 | 0.0 | 1.6 | 0.00 | 0.33 | 0.33 | 87 | 1010.2 |
| 20260507033439 | 17 | 220 | 0.0 | 1.6 | 0.00 | 0.33 | 0.33 | 87 | 1010.3 |
| 20260507033322 | 17 | 220 | 0.0 | 1.6 | 0.00 | 0.33 | 0.33 | 87 | 1010.2 |
| 20260507033234 | 17 | 220 | 0.0 | 1.6 | 0.00 | 0.33 | 0.33 | 88 | 1010.3 |
| 20260507033149 | 17 | 220 | 0.0 | 1.6 | 0.00 | 0.33 | 0.33 | 88 | 1010.2 |
| 20260507033146 | 17 | 220 | 0.0 | 0.0 | 0.00 | 0.33 | 0.33 | 88 | 1010.2 |
| 20260507032933 | 17 | 220 | 0.0 | 0.0 | 0.00 | 0.33 | 0.33 | 88 | 1010.2 |
| 20260507032843 | 17 | 220 | 0.0 | 0.0 | 0.00 | 0.33 | 0.33 | 88 | 1010.2 |
| 20260507032736 | 17 | 220 | 0.0 | 1.6 | 0.00 | 0.33 | 0.33 | 88 | 1010.2 |
| 20260507032640 | 17 | 220 | 0.0 | 1.6 | 0.00 | 0.33 | 0.33 | 88 | 1010.1 |
| 20260507032523 | 17 | 220 | 0.0 | 1.6 | 0.00 | 0.33 | 0.33 | 88 | 1010.1 |
| 20260507032435 | 17 | 220 | 0.0 | 1.6 | 0.00 | 0.33 | 0.33 | 88 | 1010.0 |
| 20260507032317 | 17 | 220 | 0.0 | 1.6 | 0.00 | 0.33 | 0.33 | 88 | 1010.0 |
| 20260507032214 | 17 | 220 | 0.0 | 1.6 | 0.00 | 0.33 | 0.33 | 88 | 1010.0 |
| 20260507032124 | 17 | 220 | 0.0 | 1.6 | 0.00 | 0.33 | 0.33 | 88 | 1010.0 |
| 20260507032023 | 17 | 220 | 0.0 | 1.6 | 0.00 | 0.33 | 0.33 | 88 | 1010.0 |
| 20260507031914 | 17 | 220 | 0.0 | 1.6 | 0.00 | 0.33 | 0.33 | 88 | 1010.0 |
| 20260507031831 | 17 | 220 | 0.0 | 1.6 | 0.00 | 0.33 | 0.33 | 88 | 1009.9 |
| 20260507031722 | 17 | 220 | 0.0 | 1.6 | 0.00 | 0.33 | 0.33 | 88 | 1009.9 |
| 20260507031645 | 17 | 220 | 0.0 | 1.6 | 0.00 | 0.33 | 0.33 | 88 | 1009.8 |
| 20260507031431 | 17 | 220 | 0.0 | 1.6 | 0.00 | 0.33 | 0.33 | 88 | 1009.7 |
| 20260507031339 | 17 | 220 | 0.0 | 1.6 | 0.00 | 0.33 | 0.33 | 88 | 1009.7 |
| 20260507031216 | 17 | 220 | 0.0 | 1.6 | 0.00 | 0.33 | 0.33 | 88 | 1009.7 |
| 20260507031129 | 17 | 220 | 0.0 | 1.6 | 0.00 | 0.33 | 0.33 | 88 | 1009.7 |
| 20260507031036 | 17 | 220 | 0.0 | 1.6 | 0.00 | 0.33 | 0.33 | 88 | 1009.6 |
| 20260507030923 | 17 | 220 | 0.0 | 1.6 | 0.00 | 0.33 | 0.33 | 88 | 1009.7 |
| 20260507030840 | 17 | 220 | 0.0 | 1.6 | 0.00 | 0.33 | 0.33 | 87 | 1009.6 |
| 20260507030722 | 17 | 220 | 0.0 | 1.6 | 0.00 | 0.33 | 0.33 | 87 | 1009.7 |
| 20260507030632 | 17 | 220 | 0.0 | 1.6 | 0.00 | 0.33 | 0.33 | 87 | 1009.6 |
| 20260507030539 | 17 | 220 | 0.0 | 1.6 | 0.00 | 0.33 | 0.33 | 88 | 1009.7 |
| 20260507030426 | 17 | 220 | 0.0 | 1.6 | 0.00 | 0.33 | 0.33 | 87 | 1009.6 |
| 20260507030332 | 17 | 220 | 0.0 | 1.6 | 0.00 | 0.33 | 0.33 | 87 | 1009.6 |
| 20260507030242 | 17 | 220 | 0.0 | 1.6 | 0.00 | 0.33 | 0.33 | 87 | 1009.6 |
| 20260507030201 | 17 | 220 | 0.0 | 1.6 | 0.00 | 0.33 | 0.33 | 87 | 1009.4 |
| 20260507025914 | 17 | 220 | 0.0 | 1.6 | 0.00 | 0.33 | 0.33 | 87 | 1009.4 |
| 20260507025837 | 17 | 220 | 0.0 | 1.6 | 0.00 | 0.33 | 0.33 | 87 | 1009.3 |
| 20260507025726 | 17 | 220 | 0.0 | 1.6 | 0.00 | 0.33 | 0.33 | 86 | 1009.3 |
| 20260507025626 | 17 | 220 | 0.0 | 1.6 | 0.00 | 0.33 | 0.33 | 86 | 1009.3 |
| 20260507025533 | 17 | 220 | 0.0 | 1.6 | 0.00 | 0.33 | 0.33 | 86 | 1009.3 |
| 20260507025434 | 17 | 220 | 0.0 | 1.6 | 0.00 | 0.33 | 0.33 | 86 | 1009.2 |
| 20260507025356 | 17 | 220 | 0.0 | 0.0 | 0.00 | 0.33 | 0.33 | 86 | 1009.2 |
| 20260507025221 | 17 | 220 | 0.0 | 0.0 | 0.00 | 0.33 | 0.33 | 86 | 1009.1 |
| 20260507025122 | 17 | 220 | 0.0 | 1.6 | 0.00 | 0.33 | 0.33 | 86 | 1009.2 |
| 20260507025021 | 17 | 220 | 0.0 | 1.6 | 0.00 | 0.33 | 0.33 | 86 | 1009.2 |
| 20260507024931 | 17 | 220 | 0.0 | 3.2 | 0.00 | 0.33 | 0.33 | 86 | 1009.2 |
| 20260507024821 | 17 | 220 | 0.0 | 3.2 | 0.00 | 0.33 | 0.33 | 86 | 1009.3 |
| 20260507024740 | 17 | 220 | 0.0 | 3.2 | 0.00 | 0.33 | 0.33 | 86 | 1009.2 |
| 20260507024619 | 17 | 220 | 0.0 | 3.2 | 0.00 | 0.33 | 0.33 | 86 | 1009.2 |
| 20260507024439 | 17 | 220 | 0.0 | 3.2 | 0.00 | 0.33 | 0.33 | 85 | 1009.1 |
| 20260507024316 | 17 | 220 | 0.0 | 3.2 | 0.00 | 0.33 | 0.33 | 85 | 1009.1 |
| 20260507024240 | 17 | 220 | 0.0 | 3.2 | 0.00 | 0.33 | 0.33 | 85 | 1009.1 |
| 20260507024139 | 17 | 220 | 0.0 | 3.2 | 0.00 | 0.33 | 0.33 | 85 | 1009.2 |
| 20260507024024 | 17 | 220 | 0.0 | 3.2 | 0.00 | 0.33 | 0.33 | 85 | 1009.1 |
| 20260507023922 | 17 | 220 | 0.0 | 3.2 | 0.00 | 0.33 | 0.33 | 84 | 1009.3 |
| 20260507023818 | 17 | 220 | 0.0 | 3.2 | 0.00 | 0.33 | 0.33 | 84 | 1009.3 |
| 20260507023725 | 18 | 220 | 0.0 | 3.2 | 0.00 | 0.33 | 0.33 | 84 | 1009.2 |
| 20260507023630 | 18 | 220 | 0.0 | 3.2 | 0.00 | 0.33 | 0.33 | 84 | 1009.2 |
| 20260507023526 | 18 | 220 | 0.0 | 3.2 | 0.00 | 0.33 | 0.33 | 84 | 1009.3 |
| 20260507023450 | 18 | 220 | 0.0 | 3.2 | 0.00 | 0.33 | 0.33 | 83 | 1009.3 |
| 20260507023330 | 18 | 220 | 0.0 | 3.2 | 0.00 | 0.33 | 0.33 | 83 | 1009.3 |
| 20260507023217 | 18 | 220 | 0.0 | 3.2 | 0.00 | 0.33 | 0.33 | 82 | 1009.3 |
| 20260507023155 | 18 | 220 | 0.0 | 3.2 | 0.00 | 0.33 | 0.33 | 82 | 1009.4 |
| 20260507023108 | 18 | 220 | 0.0 | 3.2 | 0.00 | 0.33 | 0.33 | 82 | 1009.4 |
| 20260507022929 | 18 | 220 | 0.0 | 3.2 | 0.00 | 0.33 | 0.33 | 82 | 1009.5 |
| 20260507022845 | 18 | 220 | 0.0 | 3.2 | 0.00 | 0.33 | 0.33 | 82 | 1009.4 |
| 20260507022731 | 18 | 220 | 0.0 | 3.2 | 0.00 | 0.33 | 0.33 | 82 | 1009.5 |
| 20260507022637 | 18 | 220 | 0.0 | 3.2 | 0.00 | 0.33 | 0.33 | 82 | 1009.5 |
| 20260507022523 | 18 | 220 | 0.0 | 3.2 | 0.00 | 0.33 | 0.33 | 82 | 1009.5 |
| 20260507022414 | 18 | 220 | 0.0 | 3.2 | 0.00 | 0.33 | 0.33 | 82 | 1009.5 |
| 20260507022345 | 18 | 220 | 0.0 | 3.2 | 0.00 | 0.33 | 0.33 | 82 | 1009.5 |
| 20260507022227 | 18 | 220 | 0.0 | 3.2 | 0.00 | 0.33 | 0.33 | 82 | 1009.6 |
| 20260507022137 | 18 | 220 | 0.0 | 3.2 | 0.00 | 0.33 | 0.33 | 82 | 1009.6 |
| 20260507022025 | 18 | 220 | 0.0 | 3.2 | 0.00 | 0.33 | 0.33 | 82 | 1009.6 |
| 20260507021939 | 18 | 220 | 0.0 | 3.2 | 0.00 | 0.33 | 0.33 | 82 | 1009.6 |
| 20260507021832 | 18 | 220 | 0.0 | 3.2 | 0.00 | 0.33 | 0.33 | 82 | 1009.6 |
| 20260507021737 | 18 | 220 | 0.0 | 3.2 | 0.00 | 0.33 | 0.33 | 82 | 1009.6 |
| 20260507021638 | 18 | 220 | 0.0 | 3.2 | 0.00 | 0.33 | 0.33 | 82 | 1009.7 |
| 20260507021425 | 18 | 220 | 0.0 | 4.8 | 0.00 | 0.33 | 0.33 | 82 | 1009.8 |
| 20260507021335 | 18 | 220 | 0.0 | 4.8 | 0.00 | 0.33 | 0.33 | 82 | 1009.8 |
| 20260507021219 | 18 | 220 | 0.0 | 4.8 | 0.00 | 0.33 | 0.33 | 81 | 1009.9 |
| 20260507021134 | 18 | 220 | 0.0 | 4.8 | 0.00 | 0.33 | 0.33 | 81 | 1009.9 |
| 20260507021033 | 18 | 204 | 0.0 | 4.8 | 0.00 | 0.33 | 0.33 | 81 | 1009.9 |
| 20260507020938 | 18 | 200 | 1.6 | 4.8 | 0.00 | 0.33 | 0.33 | 81 | 1009.9 |
| 20260507020842 | 18 | 200 | 1.6 | 4.8 | 0.00 | 0.33 | 0.33 | 82 | 1009.9 |
| 20260507020729 | 18 | 200 | 0.0 | 4.8 | 0.00 | 0.33 | 0.33 | 82 | 1009.9 |
| 20260507020617 | 18 | 200 | 0.0 | 4.8 | 0.00 | 0.33 | 0.33 | 82 | 1010.0 |
| 20260507020525 | 18 | 200 | 0.0 | 4.8 | 0.00 | 0.33 | 0.33 | 82 | 1010.0 |
| 20260507020434 | 18 | 200 | 0.0 | 4.8 | 0.00 | 0.33 | 0.33 | 82 | 1010.0 |
| 20260507020338 | 18 | 200 | 0.0 | 4.8 | 0.00 | 0.33 | 0.33 | 82 | 1010.0 |
| 20260507020233 | 18 | 209 | 0.0 | 4.8 | 0.00 | 0.33 | 0.33 | 82 | 1010.0 |
| 20260507020148 | 18 | 209 | 1.6 | 4.8 | 0.00 | 0.33 | 0.33 | 82 | 1010.0 |
| 20260507015917 | 18 | 198 | 1.6 | 4.8 | 0.00 | 0.33 | 0.33 | 83 | 1010.0 |
| 20260507015839 | 18 | 227 | 1.6 | 4.8 | 0.00 | 0.33 | 0.33 | 83 | 1010.0 |
| 20260507015722 | 18 | 193 | 1.6 | 4.8 | 0.00 | 0.33 | 0.33 | 83 | 1010.1 |
| 20260507015616 | 18 | 193 | 1.6 | 4.8 | 0.00 | 0.33 | 0.33 | 83 | 1010.1 |
| 20260507015521 | 18 | 216 | 1.6 | 3.2 | 0.00 | 0.33 | 0.33 | 84 | 1009.9 |
| 20260507015420 | 18 | 216 | 0.0 | 3.2 | 0.00 | 0.33 | 0.33 | 84 | 1010.0 |
| 20260507015322 | 18 | 216 | 0.0 | 3.2 | 0.00 | 0.33 | 0.33 | 84 | 1009.9 |
| 20260507015218 | 18 | 216 | 0.0 | 3.2 | 0.00 | 0.33 | 0.33 | 84 | 1009.9 |
| 20260507015124 | 18 | 216 | 0.0 | 3.2 | 0.00 | 0.33 | 0.33 | 84 | 1009.9 |
| 20260507015033 | 18 | 216 | 0.0 | 3.2 | 0.00 | 0.33 | 0.33 | 84 | 1009.8 |
| 20260507014929 | 18 | 216 | 1.6 | 3.2 | 0.00 | 0.33 | 0.33 | 84 | 1009.8 |
| 20260507014841 | 18 | 216 | 0.0 | 3.2 | 0.00 | 0.33 | 0.33 | 84 | 1009.7 |
| 20260507014728 | 18 | 216 | 0.0 | 3.2 | 0.00 | 0.33 | 0.33 | 85 | 1009.8 |
| 20260507014700 | 18 | 216 | 0.0 | 3.2 | 0.00 | 0.33 | 0.33 | 84 | 1009.7 |
| 20260507014624 | 18 | 216 | 0.0 | 3.2 | 0.00 | 0.33 | 0.33 | 84 | 1009.7 |
| 20260507014429 | 18 | 216 | 0.0 | 3.2 | 0.00 | 0.33 | 0.33 | 84 | 1009.7 |
| 20260507014336 | 18 | 216 | 0.0 | 3.2 | 0.00 | 0.33 | 0.33 | 84 | 1009.7 |
| 20260507014224 | 18 | 216 | 0.0 | 3.2 | 0.00 | 0.33 | 0.33 | 84 | 1009.7 |
| 20260507014130 | 18 | 216 | 0.0 | 1.6 | 0.00 | 0.33 | 0.33 | 84 | 1009.6 |
| 20260507014025 | 18 | 216 | 0.0 | 1.6 | 0.00 | 0.33 | 0.33 | 84 | 1009.7 |
| 20260507013926 | 18 | 216 | 0.0 | 1.6 | 0.00 | 0.33 | 0.33 | 84 | 1009.7 |
| 20260507013822 | 18 | 216 | 0.0 | 1.6 | 0.00 | 0.33 | 0.33 | 84 | 1009.8 |
| 20260507013737 | 18 | 216 | 0.0 | 1.6 | 0.00 | 0.33 | 0.33 | 84 | 1009.9 |
| 20260507013608 | 18 | 216 | 0.0 | 1.6 | 0.00 | 0.33 | 0.33 | 83 | 1009.9 |
| 20260507013605 | 18 | 216 | 0.0 | 1.6 | 0.00 | 0.33 | 0.33 | 83 | 1009.9 |
| 20260507013419 | 18 | 216 | 0.0 | 1.6 | 0.00 | 0.33 | 0.33 | 83 | 1009.9 |
| 20260507013341 | 18 | 216 | 0.0 | 1.6 | 0.00 | 0.33 | 0.33 | 83 | 1009.8 |
| 20260507013234 | 18 | 216 | 0.0 | 1.6 | 0.00 | 0.33 | 0.33 | 83 | 1009.8 |
| 20260507013152 | 18 | 216 | 0.0 | 3.2 | 0.00 | 0.33 | 0.33 | 83 | 1009.7 |
| 20260507013133 | 18 | 216 | 0.0 | 3.2 | 0.00 | 0.33 | 0.33 | 83 | 1009.7 |
| 20260507012914 | 18 | 216 | 0.0 | 3.2 | 0.00 | 0.33 | 0.33 | 82 | 1009.8 |
| 20260507012829 | 18 | 216 | 0.0 | 3.2 | 0.00 | 0.33 | 0.33 | 82 | 1009.7 |
| 20260507012715 | 18 | 216 | 0.0 | 3.2 | 0.00 | 0.33 | 0.33 | 82 | 1009.7 |
| 20260507012641 | 18 | 216 | 0.0 | 3.2 | 0.00 | 0.33 | 0.33 | 82 | 1009.6 |
| 20260507012531 | 18 | 216 | 0.0 | 4.8 | 0.00 | 0.33 | 0.33 | 82 | 1009.6 |
| 20260507012436 | 18 | 216 | 0.0 | 4.8 | 0.00 | 0.33 | 0.33 | 82 | 1009.6 |
| 20260507012331 | 18 | 216 | 0.0 | 4.8 | 0.00 | 0.33 | 0.33 | 82 | 1009.6 |
| 20260507012241 | 18 | 216 | 0.0 | 6.4 | 0.00 | 0.33 | 0.33 | 82 | 1009.7 |
| 20260507012123 | 18 | 216 | 0.0 | 6.4 | 0.00 | 0.33 | 0.33 | 82 | 1009.7 |
| 20260507012026 | 18 | 217 | 0.0 | 6.4 | 0.00 | 0.33 | 0.33 | 82 | 1009.7 |
| 20260507011939 | 18 | 219 | 0.0 | 6.4 | 0.00 | 0.33 | 0.33 | 82 | 1009.7 |
| 20260507011818 | 18 | 219 | 1.6 | 6.4 | 0.00 | 0.33 | 0.33 | 82 | 1009.7 |
| 20260507011724 | 18 | 211 | 1.6 | 6.4 | 0.00 | 0.33 | 0.33 | 82 | 1009.6 |
| 20260507011644 | 18 | 209 | 1.6 | 6.4 | 0.00 | 0.33 | 0.33 | 82 | 1009.6 |
| 20260507011640 | 18 | 209 | 1.6 | 6.4 | 0.00 | 0.33 | 0.33 | 82 | 1009.6 |
| 20260507011440 | 18 | 246 | 1.6 | 4.8 | 0.00 | 0.33 | 0.33 | 82 | 1009.5 |
| 20260507011340 | 18 | 229 | 0.0 | 4.8 | 0.00 | 0.33 | 0.33 | 82 | 1009.6 |
| 20260507011217 | 18 | 227 | 0.0 | 4.8 | 0.00 | 0.33 | 0.33 | 82 | 1009.6 |
| 20260507011119 | 18 | 227 | 0.0 | 4.8 | 0.00 | 0.33 | 0.33 | 82 | 1009.7 |
| 20260507011044 | 18 | 227 | 1.6 | 6.4 | 0.00 | 0.33 | 0.33 | 82 | 1009.7 |
| 20260507010926 | 18 | 223 | 1.6 | 6.4 | 0.00 | 0.33 | 0.33 | 82 | 1009.7 |
| 20260507010818 | 18 | 223 | 1.6 | 6.4 | 0.00 | 0.33 | 0.33 | 82 | 1009.7 |
| 20260507010725 | 18 | 223 | 0.0 | 6.4 | 0.00 | 0.33 | 0.33 | 82 | 1009.7 |
| 20260507010630 | 18 | 213 | 0.0 | 6.4 | 0.00 | 0.33 | 0.33 | 82 | 1009.6 |
| 20260507010518 | 18 | 213 | 1.6 | 6.4 | 0.00 | 0.33 | 0.33 | 82 | 1009.7 |
| 20260507010429 | 18 | 181 | 1.6 | 6.4 | 0.00 | 0.33 | 0.33 | 82 | 1009.7 |
| 20260507010332 | 18 | 197 | 3.2 | 6.4 | 0.00 | 0.33 | 0.33 | 82 | 1009.7 |
| 20260507010237 | 18 | 205 | 3.2 | 6.4 | 0.00 | 0.33 | 0.33 | 82 | 1009.7 |
| 20260507010203 | 18 | 216 | 1.6 | 6.4 | 0.00 | 0.33 | 0.33 | 82 | 1009.7 |
| 20260507010200 | 18 | 248 | 1.6 | 6.4 | 0.00 | 0.33 | 0.33 | 82 | 1009.7 |
| 20260507005926 | 18 | 248 | 1.6 | 6.4 | 0.00 | 0.33 | 0.33 | 82 | 1009.8 |
| 20260507005829 | 18 | 248 | 1.6 | 6.4 | 0.00 | 0.33 | 0.33 | 82 | 1009.7 |
| 20260507005735 | 18 | 219 | 1.6 | 6.4 | 0.00 | 0.33 | 0.33 | 82 | 1009.7 |
| 20260507005630 | 18 | 219 | 1.6 | 6.4 | 0.00 | 0.33 | 0.33 | 82 | 1009.6 |
| 20260507005534 | 18 | 197 | 1.6 | 6.4 | 0.00 | 0.33 | 0.33 | 82 | 1009.7 |
| 20260507005424 | 18 | 195 | 0.0 | 6.4 | 0.00 | 0.33 | 0.33 | 82 | 1009.6 |
| 20260507005319 | 18 | 195 | 0.0 | 6.4 | 0.00 | 0.33 | 0.33 | 82 | 1009.6 |
| 20260507005223 | 18 | 195 | 0.0 | 6.4 | 0.00 | 0.33 | 0.33 | 82 | 1009.6 |
| 20260507005143 | 18 | 195 | 1.6 | 6.4 | 0.00 | 0.33 | 0.33 | 82 | 1009.6 |
| 20260507005020 | 18 | 195 | 1.6 | 6.4 | 0.00 | 0.33 | 0.33 | 82 | 1009.6 |
| 20260507004943 | 18 | 215 | 1.6 | 6.4 | 0.00 | 0.33 | 0.33 | 82 | 1009.6 |
| 20260507004830 | 18 | 215 | 1.6 | 6.4 | 0.00 | 0.33 | 0.33 | 82 | 1009.7 |
| 20260507004728 | 18 | 214 | 1.6 | 6.4 | 0.00 | 0.33 | 0.33 | 82 | 1009.6 |
| 20260507004630 | 18 | 226 | 1.6 | 4.8 | 0.00 | 0.33 | 0.33 | 81 | 1009.6 |
| 20260507004605 | 18 | 190 | 1.6 | 4.8 | 0.00 | 0.33 | 0.33 | 81 | 1009.5 |
| 20260507004436 | 18 | 190 | 0.0 | 4.8 | 0.00 | 0.33 | 0.33 | 82 | 1009.5 |
| 20260507004331 | 18 | 184 | 0.0 | 4.8 | 0.00 | 0.33 | 0.33 | 82 | 1009.5 |
| 20260507004234 | 18 | 184 | 0.0 | 4.8 | 0.00 | 0.33 | 0.33 | 81 | 1009.5 |
| 20260507004134 | 18 | 184 | 1.6 | 4.8 | 0.00 | 0.33 | 0.33 | 81 | 1009.4 |
| 20260507004031 | 18 | 184 | 1.6 | 4.8 | 0.00 | 0.33 | 0.33 | 81 | 1009.4 |
| 20260507003934 | 18 | 215 | 1.6 | 6.4 | 0.00 | 0.33 | 0.33 | 81 | 1009.5 |
| 20260507003842 | 18 | 226 | 0.0 | 6.4 | 0.00 | 0.33 | 0.33 | 81 | 1009.4 |
| 20260507003705 | 18 | 227 | 0.0 | 6.4 | 0.00 | 0.33 | 0.33 | 81 | 1009.5 |
| 20260507003634 | 18 | 227 | 0.0 | 6.4 | 0.00 | 0.33 | 0.33 | 81 | 1009.5 |
| 20260507003526 | 18 | 227 | 0.0 | 6.4 | 0.00 | 0.33 | 0.33 | 81 | 1009.5 |
| 20260507003420 | 18 | 227 | 1.6 | 6.4 | 0.00 | 0.33 | 0.33 | 81 | 1009.4 |
| 20260507003319 | 18 | 227 | 1.6 | 6.4 | 0.00 | 0.33 | 0.33 | 81 | 1009.4 |
| 20260507003225 | 18 | 227 | 3.2 | 6.4 | 0.00 | 0.33 | 0.33 | 81 | 1009.4 |
| 20260507003146 | 18 | 227 | 3.2 | 6.4 | 0.00 | 0.33 | 0.33 | 81 | 1009.4 |
| 20260507002927 | 18 | 203 | 0.0 | 4.8 | 0.00 | 0.33 | 0.33 | 80 | 1009.5 |
| 20260507002815 | 19 | 203 | 0.0 | 4.8 | 0.00 | 0.33 | 0.33 | 80 | 1009.5 |
| 20260507002740 | 19 | 204 | 0.0 | 6.4 | 0.00 | 0.33 | 0.33 | 81 | 1009.5 |
| 20260507002637 | 19 | 203 | 0.0 | 6.4 | 0.00 | 0.33 | 0.33 | 80 | 1009.5 |
| 20260507002525 | 19 | 204 | 1.6 | 6.4 | 0.00 | 0.33 | 0.33 | 80 | 1009.5 |
| 20260507002422 | 19 | 189 | 1.6 | 6.4 | 0.00 | 0.33 | 0.33 | 80 | 1009.5 |
| 20260507002336 | 19 | 189 | 1.6 | 6.4 | 0.00 | 0.33 | 0.33 | 80 | 1009.5 |
| 20260507002225 | 19 | 189 | 1.6 | 6.4 | 0.00 | 0.33 | 0.33 | 80 | 1009.4 |
| 20260507002139 | 19 | 152 | 0.0 | 6.4 | 0.00 | 0.33 | 0.33 | 80 | 1009.4 |
| 20260507002035 | 19 | 233 | 1.6 | 6.4 | 0.00 | 0.33 | 0.33 | 80 | 1009.5 |
| 20260507001937 | 19 | 230 | 1.6 | 6.4 | 0.00 | 0.33 | 0.33 | 80 | 1009.5 |
| 20260507001837 | 19 | 221 | 1.6 | 6.4 | 0.00 | 0.33 | 0.33 | 80 | 1009.5 |
| 20260507001730 | 19 | 212 | 1.6 | 6.4 | 0.00 | 0.33 | 0.33 | 80 | 1009.5 |
| 20260507001648 | 19 | 193 | 1.6 | 6.4 | 0.00 | 0.33 | 0.33 | 80 | 1009.5 |
| 20260507001646 | 19 | 238 | 1.6 | 6.4 | 0.00 | 0.33 | 0.33 | 80 | 1009.5 |
| 20260507001440 | 19 | 200 | 1.6 | 6.4 | 0.00 | 0.33 | 0.33 | 80 | 1009.4 |
| 20260507001332 | 19 | 198 | 0.0 | 6.4 | 0.00 | 0.33 | 0.33 | 80 | 1009.4 |
| 20260507001243 | 19 | 209 | 1.6 | 8.0 | 0.00 | 0.33 | 0.33 | 80 | 1009.4 |
| 20260507001116 | 19 | 209 | 3.2 | 8.0 | 0.00 | 0.33 | 0.33 | 80 | 1009.3 |
| 20260507001040 | 19 | 210 | 3.2 | 8.0 | 0.00 | 0.33 | 0.33 | 80 | 1009.3 |
| 20260507000938 | 19 | 171 | 1.6 | 8.0 | 0.00 | 0.33 | 0.33 | 79 | 1009.4 |
| 20260507000842 | 19 | 241 | 1.6 | 8.0 | 0.00 | 0.33 | 0.33 | 79 | 1009.3 |
| 20260507000732 | 19 | 239 | 1.6 | 8.0 | 0.00 | 0.33 | 0.33 | 79 | 1009.4 |
| 20260507000614 | 19 | 239 | 3.2 | 8.0 | 0.00 | 0.33 | 0.33 | 79 | 1009.3 |
| 20260507000609 | 19 | 220 | 3.2 | 8.0 | 0.00 | 0.33 | 0.33 | 79 | 1009.3 |
| 20260507000431 | 19 | 218 | 3.2 | 8.0 | 0.00 | 0.33 | 0.33 | 79 | 1009.2 |
| 20260507000321 | 19 | 227 | 3.2 | 8.0 | 0.00 | 0.33 | 0.33 | 79 | 1009.3 |
| 20260507000234 | 19 | 250 | 3.2 | 8.0 | 0.00 | 0.33 | 0.33 | 79 | 1009.2 |
| 20260507000205 | 19 | 228 | 1.6 | 8.0 | 0.00 | 0.33 | 0.33 | 79 | 1009.2 |
| 20260507000133 | 20 | 177 | 3.2 | 8.0 | 0.00 | 0.33 | 0.33 | 79 | 1009.1 |
| 20260506235949 | 19 | 177 | 1.6 | 8.0 | 0.00 | 0.33 | 0.33 | 79 | 1009.1 |
| 20260506235827 | 20 | 196 | 0.0 | 6.4 | 0.00 | 0.33 | 0.33 | 79 | 1009.0 |
| 20260506235711 | 20 | 196 | 1.6 | 6.4 | 0.00 | 0.33 | 0.33 | 78 | 1009.1 |
| 20260506235634 | 20 | 196 | 3.2 | 6.4 | 0.00 | 0.33 | 0.33 | 78 | 1009.1 |
| 20260506235513 | 20 | 173 | 1.6 | 6.4 | 0.00 | 0.33 | 0.33 | 78 | 1009.1 |
| 20260506235426 | 20 | 226 | 1.6 | 6.4 | 0.00 | 0.33 | 0.33 | 78 | 1009.1 |
| 20260506235326 | 20 | 163 | 1.6 | 6.4 | 0.00 | 0.33 | 0.33 | 78 | 1009.2 |
| 20260506235216 | 20 | 229 | 1.6 | 9.7 | 0.00 | 0.33 | 0.33 | 78 | 1009.2 |
| 20260506235119 | 20 | 221 | 1.6 | 9.7 | 0.00 | 0.33 | 0.33 | 78 | 1009.2 |
| 20260506235041 | 20 | 258 | 1.6 | 9.7 | 0.00 | 0.33 | 0.33 | 78 | 1009.2 |
| 20260506234915 | 20 | 258 | 1.6 | 9.7 | 0.00 | 0.33 | 0.33 | 78 | 1009.2 |
| 20260506234843 | 20 | 201 | 1.6 | 9.7 | 0.00 | 0.33 | 0.33 | 78 | 1009.2 |
| 20260506234723 | 20 | 173 | 1.6 | 9.7 | 0.00 | 0.33 | 0.33 | 78 | 1009.3 |
| 20260506234655 | 20 | 218 | 3.2 | 9.7 | 0.00 | 0.33 | 0.33 | 78 | 1009.3 |
| 20260506234610 | 20 | 233 | 3.2 | 9.7 | 0.00 | 0.33 | 0.33 | 78 | 1009.2 |
| 20260506234438 | 20 | 236 | 3.2 | 9.7 | 0.00 | 0.33 | 0.33 | 78 | 1009.2 |
| 20260506234346 | 20 | 194 | 1.6 | 6.4 | 0.00 | 0.33 | 0.33 | 78 | 1009.2 |
| 20260506234222 | 20 | 171 | 1.6 | 6.4 | 0.00 | 0.33 | 0.33 | 78 | 1009.3 |
| 20260506234127 | 20 | 171 | 0.0 | 6.4 | 0.00 | 0.33 | 0.33 | 78 | 1009.3 |
| 20260506234037 | 20 | 171 | 1.6 | 6.4 | 0.00 | 0.33 | 0.33 | 78 | 1009.3 |
| 20260506233938 | 20 | 171 | 1.6 | 6.4 | 0.00 | 0.33 | 0.33 | 78 | 1009.3 |
| 20260506233833 | 20 | 217 | 1.6 | 6.4 | 0.00 | 0.33 | 0.33 | 77 | 1009.3 |
| 20260506233736 | 20 | 217 | 3.2 | 6.4 | 0.00 | 0.33 | 0.33 | 77 | 1009.2 |
| 20260506233630 | 20 | 170 | 1.6 | 6.4 | 0.00 | 0.33 | 0.33 | 77 | 1009.2 |
| 20260506233530 | 20 | 231 | 1.6 | 11.3 | 0.00 | 0.33 | 0.33 | 77 | 1009.2 |
| 20260506233421 | 20 | 247 | 3.2 | 11.3 | 0.00 | 0.33 | 0.33 | 77 | 1009.2 |
| 20260506233344 | 20 | 206 | 1.6 | 11.3 | 0.00 | 0.33 | 0.33 | 77 | 1009.2 |
| 20260506233232 | 20 | 178 | 1.6 | 11.3 | 0.00 | 0.33 | 0.33 | 77 | 1009.2 |
| 20260506233137 | 20 | 179 | 3.2 | 11.3 | 0.00 | 0.33 | 0.33 | 77 | 1009.2 |
| 20260506232935 | 20 | 193 | 3.2 | 11.3 | 0.00 | 0.33 | 0.33 | 77 | 1009.2 |
| 20260506232842 | 20 | 186 | 4.8 | 11.3 | 0.00 | 0.33 | 0.33 | 77 | 1009.3 |
| 20260506232734 | 20 | 175 | 3.2 | 11.3 | 0.00 | 0.33 | 0.33 | 77 | 1009.2 |
| 20260506232624 | 20 | 200 | 3.2 | 16.1 | 0.00 | 0.33 | 0.33 | 76 | 1009.2 |
| 20260506232516 | 20 | 197 | 4.8 | 16.1 | 0.00 | 0.33 | 0.33 | 77 | 1009.2 |
| 20260506232433 | 20 | 192 | 4.8 | 16.1 | 0.00 | 0.33 | 0.33 | 77 | 1009.2 |
| 20260506232328 | 20 | 219 | 3.2 | 16.1 | 0.00 | 0.33 | 0.33 | 76 | 1009.1 |
| 20260506232244 | 20 | 245 | 3.2 | 16.1 | 0.00 | 0.33 | 0.33 | 76 | 1009.1 |
| 20260506232143 | 20 | 259 | 4.8 | 16.1 | 0.00 | 0.33 | 0.33 | 76 | 1009.1 |
| 20260506232019 | 20 | 183 | 3.2 | 16.1 | 0.00 | 0.33 | 0.33 | 76 | 1009.1 |
| 20260506231932 | 20 | 210 | 4.8 | 16.1 | 0.00 | 0.33 | 0.33 | 76 | 1009.1 |
| 20260506231831 | 20 | 197 | 6.4 | 16.1 | 0.00 | 0.33 | 0.33 | 76 | 1009.1 |
| 20260506231739 | 20 | 254 | 4.8 | 11.3 | 0.00 | 0.33 | 0.33 | 76 | 1009.0 |
| 20260506231643 | 20 | 232 | 4.8 | 11.3 | 0.00 | 0.33 | 0.33 | 76 | 1009.0 |
| 20260506231636 | 20 | 211 | 4.8 | 14.5 | 0.00 | 0.33 | 0.33 | 76 | 1009.0 |
| 20260506231432 | 20 | 233 | 3.2 | 14.5 | 0.00 | 0.33 | 0.33 | 76 | 1009.0 |
| 20260506231316 | 20 | 223 | 3.2 | 14.5 | 0.00 | 0.33 | 0.33 | 76 | 1009.0 |
| 20260506231223 | 20 | 239 | 4.8 | 14.5 | 0.00 | 0.33 | 0.33 | 76 | 1009.0 |
| 20260506231122 | 20 | 257 | 4.8 | 14.5 | 0.00 | 0.33 | 0.33 | 76 | 1009.0 |
| 20260506231041 | 20 | 202 | 3.2 | 14.5 | 0.00 | 0.33 | 0.33 | 76 | 1009.0 |
| 20260506230935 | 20 | 242 | 4.8 | 14.5 | 0.00 | 0.33 | 0.33 | 76 | 1009.0 |
| 20260506230819 | 20 | 215 | 4.8 | 14.5 | 0.00 | 0.33 | 0.33 | 76 | 1009.0 |
| 20260506230737 | 20 | 198 | 3.2 | 14.5 | 0.00 | 0.33 | 0.33 | 76 | 1009.0 |
| 20260506230617 | 20 | 189 | 3.2 | 11.3 | 0.00 | 0.33 | 0.33 | 76 | 1009.0 |
| 20260506230535 | 20 | 204 | 3.2 | 11.3 | 0.00 | 0.33 | 0.33 | 76 | 1009.0 |
| 20260506230424 | 20 | 211 | 3.2 | 11.3 | 0.00 | 0.33 | 0.33 | 76 | 1009.0 |
| 20260506230330 | 20 | 101 | 4.8 | 17.7 | 0.00 | 0.33 | 0.33 | 76 | 1009.0 |
| 20260506230226 | 20 | 194 | 3.2 | 17.7 | 0.00 | 0.33 | 0.33 | 76 | 1009.0 |
| 20260506230211 | 20 | 226 | 3.2 | 17.7 | 0.00 | 0.33 | 0.33 | 76 | 1009.0 |
| 20260506230050 | 20 | 247 | 3.2 | 16.1 | 0.00 | 0.33 | 0.33 | 76 | 1009.0 |
| 20260506225935 | 20 | 234 | 3.2 | 16.1 | 0.00 | 0.33 | 0.33 | 75 | 1009.0 |
| 20260506225825 | 20 | 205 | 4.8 | 24.1 | 0.00 | 0.33 | 0.33 | 75 | 1009.0 |
| 20260506225742 | 20 | 257 | 4.8 | 24.1 | 0.00 | 0.33 | 0.33 | 75 | 1009.0 |
| 20260506225626 | 20 | 186 | 4.8 | 24.1 | 0.00 | 0.33 | 0.33 | 75 | 1009.0 |
| 20260506225520 | 20 | 75 | 4.8 | 24.1 | 0.00 | 0.33 | 0.33 | 75 | 1009.1 |
| 20260506225432 | 20 | 221 | 6.4 | 24.1 | 0.00 | 0.33 | 0.33 | 75 | 1009.1 |
| 20260506225337 | 20 | 176 | 8.0 | 24.1 | 0.00 | 0.33 | 0.33 | 75 | 1009.1 |
| 20260506225230 | 20 | 202 | 9.7 | 24.1 | 0.00 | 0.33 | 0.33 | 75 | 1009.0 |
| 20260506225142 | 20 | 192 | 9.7 | 24.1 | 0.00 | 0.33 | 0.33 | 75 | 1009.1 |
| 20260506225025 | 20 | 209 | 6.4 | 24.1 | 0.00 | 0.33 | 0.33 | 75 | 1009.1 |
| 20260506224924 | 20 | 212 | 4.8 | 11.3 | 0.00 | 0.33 | 0.33 | 75 | 1009.1 |
| 20260506224830 | 20 | 114 | 4.8 | 11.3 | 0.00 | 0.33 | 0.33 | 76 | 1009.1 |
| 20260506224736 | 20 | 207 | 6.4 | 11.3 | 0.00 | 0.33 | 0.33 | 75 | 1009.1 |
| 20260506224646 | 20 | 180 | 4.8 | 9.7 | 0.00 | 0.33 | 0.33 | 75 | 1009.1 |
| 20260506224610 | 20 | 196 | 3.2 | 14.5 | 0.00 | 0.33 | 0.33 | 76 | 1009.1 |
| 20260506224441 | 20 | 246 | 3.2 | 14.5 | 0.00 | 0.33 | 0.33 | 76 | 1009.1 |
| 20260506224334 | 20 | 223 | 3.2 | 14.5 | 0.00 | 0.33 | 0.33 | 76 | 1009.1 |
| 20260506224254 | 20 | 223 | 3.2 | 14.5 | 0.00 | 0.33 | 0.33 | 75 | 1009.1 |
| 20260506224122 | 20 | 148 | 3.2 | 14.5 | 0.00 | 0.33 | 0.33 | 76 | 1009.1 |
| 20260506224016 | 20 | 187 | 3.2 | 14.5 | 0.00 | 0.33 | 0.33 | 75 | 1009.1 |
| 20260506223931 | 20 | 163 | 3.2 | 14.5 | 0.00 | 0.33 | 0.33 | 75 | 1009.0 |
| 20260506223824 | 20 | 155 | 6.4 | 14.5 | 0.00 | 0.33 | 0.33 | 75 | 1009.1 |
| 20260506223716 | 20 | 176 | 4.8 | 14.5 | 0.00 | 0.33 | 0.33 | 75 | 1009.0 |
| 20260506223631 | 20 | 217 | 3.2 | 9.7 | 0.00 | 0.33 | 0.33 | 75 | 1009.0 |
| 20260506223536 | 20 | 171 | 4.8 | 9.7 | 0.00 | 0.33 | 0.33 | 75 | 1009.0 |
| 20260506223417 | 20 | 177 | 3.2 | 9.7 | 0.00 | 0.33 | 0.33 | 75 | 1008.9 |
| 20260506223321 | 21 | 263 | 3.2 | 9.7 | 0.00 | 0.33 | 0.33 | 75 | 1008.9 |
| 20260506223230 | 20 | 192 | 3.2 | 12.9 | 0.00 | 0.33 | 0.33 | 75 | 1009.0 |
| 20260506223126 | 20 | 186 | 4.8 | 16.1 | 0.00 | 0.33 | 0.33 | 75 | 1009.0 |
| 20260506222954 | 21 | 208 | 3.2 | 16.1 | 0.00 | 0.33 | 0.33 | 75 | 1009.1 |
| 20260506222821 | 21 | 206 | 3.2 | 16.1 | 0.00 | 0.33 | 0.33 | 75 | 1009.1 |
| 20260506222723 | 21 | 193 | 4.8 | 16.1 | 0.00 | 0.33 | 0.33 | 75 | 1009.0 |
| 20260506222645 | 21 | 181 | 4.8 | 16.1 | 0.00 | 0.33 | 0.33 | 75 | 1009.0 |
| 20260506222518 | 21 | 207 | 6.4 | 16.1 | 0.00 | 0.33 | 0.33 | 75 | 1009.0 |
| 20260506222443 | 21 | 192 | 8.0 | 16.1 | 0.00 | 0.33 | 0.33 | 75 | 1009.1 |
| 20260506222340 | 21 | 171 | 8.0 | 16.1 | 0.00 | 0.33 | 0.33 | 75 | 1009.0 |
| 20260506222226 | 21 | 256 | 6.4 | 12.9 | 0.00 | 0.33 | 0.33 | 75 | 1009.1 |
| 20260506222136 | 21 | 211 | 3.2 | 11.3 | 0.00 | 0.33 | 0.33 | 75 | 1009.1 |
| 20260506222023 | 21 | 158 | 3.2 | 11.3 | 0.00 | 0.33 | 0.33 | 76 | 1009.1 |
| 20260506221924 | 20 | 192 | 3.2 | 11.3 | 0.00 | 0.33 | 0.33 | 76 | 1009.2 |
| 20260506221822 | 20 | 178 | 3.2 | 11.3 | 0.00 | 0.33 | 0.33 | 75 | 1009.2 |
| 20260506221736 | 20 | 163 | 3.2 | 11.3 | 0.00 | 0.33 | 0.33 | 75 | 1009.2 |
| 20260506221647 | 20 | 207 | 4.8 | 11.3 | 0.00 | 0.33 | 0.33 | 75 | 1009.2 |
| 20260506221425 | 20 | 153 | 6.4 | 11.3 | 0.00 | 0.33 | 0.33 | 75 | 1009.2 |
| 20260506221339 | 20 | 211 | 4.8 | 11.3 | 0.00 | 0.33 | 0.33 | 75 | 1009.2 |
| 20260506221237 | 20 | 121 | 4.8 | 11.3 | 0.00 | 0.33 | 0.33 | 75 | 1009.3 |
| 20260506221139 | 20 | 229 | 6.4 | 14.5 | 0.00 | 0.33 | 0.33 | 75 | 1009.3 |
| 20260506221047 | 20 | 188 | 6.4 | 14.5 | 0.00 | 0.33 | 0.33 | 75 | 1009.3 |
| 20260506220955 | 20 | 198 | 4.8 | 16.1 | 0.00 | 0.33 | 0.33 | 75 | 1009.2 |
| 20260506220824 | 20 | 196 | 4.8 | 16.1 | 0.00 | 0.33 | 0.33 | 75 | 1009.2 |
| 20260506220728 | 20 | 229 | 4.8 | 16.1 | 0.00 | 0.33 | 0.33 | 75 | 1009.2 |
| 20260506220620 | 20 | 273 | 4.8 | 16.1 | 0.00 | 0.33 | 0.33 | 75 | 1009.2 |
| 20260506220516 | 20 | 146 | 4.8 | 16.1 | 0.00 | 0.33 | 0.33 | 74 | 1009.2 |
| 20260506220435 | 20 | 149 | 4.8 | 16.1 | 0.00 | 0.33 | 0.33 | 75 | 1009.2 |
| 20260506220337 | 21 | 167 | 4.8 | 16.1 | 0.00 | 0.33 | 0.33 | 74 | 1009.3 |
| 20260506220238 | 21 | 237 | 6.4 | 16.1 | 0.00 | 0.33 | 0.33 | 74 | 1009.3 |
| 20260506220136 | 21 | 287 | 8.0 | 16.1 | 0.00 | 0.33 | 0.33 | 74 | 1009.2 |
| 20260506215943 | 21 | 202 | 8.0 | 16.1 | 0.00 | 0.33 | 0.33 | 74 | 1009.3 |
| 20260506215838 | 21 | 225 | 8.0 | 16.1 | 0.00 | 0.33 | 0.33 | 74 | 1009.3 |
| 20260506215724 | 21 | 172 | 4.8 | 12.9 | 0.00 | 0.33 | 0.33 | 74 | 1009.3 |
| 20260506215619 | 21 | 194 | 3.2 | 11.3 | 0.00 | 0.33 | 0.33 | 74 | 1009.3 |
| 20260506215529 | 21 | 211 | 4.8 | 16.1 | 0.00 | 0.33 | 0.33 | 75 | 1009.3 |
| 20260506215431 | 21 | 174 | 4.8 | 16.1 | 0.00 | 0.33 | 0.33 | 75 | 1009.4 |
| 20260506215329 | 21 | 250 | 4.8 | 16.1 | 0.00 | 0.33 | 0.33 | 75 | 1009.3 |
| 20260506215222 | 21 | 208 | 4.8 | 16.1 | 0.00 | 0.33 | 0.33 | 75 | 1009.3 |
| 20260506215125 | 21 | 200 | 4.8 | 16.1 | 0.00 | 0.33 | 0.33 | 75 | 1009.4 |
| 20260506215020 | 21 | 240 | 3.2 | 16.1 | 0.00 | 0.33 | 0.33 | 74 | 1009.3 |
| 20260506214937 | 21 | 184 | 4.8 | 16.1 | 0.00 | 0.33 | 0.33 | 74 | 1009.4 |
| 20260506214819 | 21 | 203 | 6.4 | 16.1 | 0.00 | 0.33 | 0.33 | 74 | 1009.3 |
| 20260506214746 | 21 | 231 | 8.0 | 16.1 | 0.00 | 0.33 | 0.33 | 74 | 1009.3 |
| 20260506214622 | 21 | 191 | 9.7 | 16.1 | 0.00 | 0.33 | 0.33 | 75 | 1009.4 |
| 20260506214603 | 21 | 118 | 6.4 | 14.5 | 0.00 | 0.33 | 0.33 | 75 | 1009.3 |
| 20260506214425 | 20 | 206 | 3.2 | 14.5 | 0.00 | 0.33 | 0.33 | 75 | 1009.3 |
| 20260506214344 | 20 | 239 | 4.8 | 14.5 | 0.00 | 0.33 | 0.33 | 75 | 1009.3 |
| 20260506214234 | 20 | 215 | 6.4 | 14.5 | 0.00 | 0.33 | 0.33 | 75 | 1009.3 |
| 20260506214124 | 20 | 225 | 6.4 | 14.5 | 0.00 | 0.33 | 0.33 | 74 | 1009.3 |
| 20260506214019 | 20 | 164 | 6.4 | 16.1 | 0.00 | 0.33 | 0.33 | 75 | 1009.3 |
| 20260506213940 | 20 | 179 | 4.8 | 11.3 | 0.00 | 0.33 | 0.33 | 75 | 1009.3 |
| 20260506213835 | 20 | 142 | 4.8 | 14.5 | 0.00 | 0.33 | 0.33 | 75 | 1009.3 |
| 20260506213746 | 20 | 175 | 4.8 | 14.5 | 0.00 | 0.33 | 0.33 | 75 | 1009.3 |
| 20260506213618 | 20 | 163 | 4.8 | 14.5 | 0.00 | 0.33 | 0.33 | 75 | 1009.2 |
| 20260506213523 | 20 | 186 | 1.6 | 14.5 | 0.00 | 0.33 | 0.33 | 75 | 1009.2 |
| 20260506213418 | 20 | 153 | 3.2 | 14.5 | 0.00 | 0.33 | 0.33 | 75 | 1009.2 |
| 20260506213341 | 20 | 169 | 3.2 | 14.5 | 0.00 | 0.33 | 0.33 | 75 | 1009.3 |
| 20260506213244 | 20 | 145 | 4.8 | 16.1 | 0.00 | 0.33 | 0.33 | 75 | 1009.3 |
| 20260506213156 | 20 | 186 | 6.4 | 16.1 | 0.00 | 0.33 | 0.33 | 74 | 1009.3 |
| 20260506213049 | 20 | 265 | 4.8 | 16.1 | 0.00 | 0.33 | 0.33 | 75 | 1009.3 |
| 20260506212931 | 20 | 126 | 3.2 | 16.1 | 0.00 | 0.33 | 0.33 | 76 | 1009.3 |
| 20260506212833 | 20 | 219 | 3.2 | 16.1 | 0.00 | 0.33 | 0.33 | 75 | 1009.3 |
| 20260506212723 | 20 | 259 | 1.6 | 16.1 | 0.00 | 0.33 | 0.33 | 75 | 1009.3 |
| 20260506212642 | 20 | 269 | 3.2 | 16.1 | 0.00 | 0.33 | 0.33 | 75 | 1009.2 |
| 20260506212517 | 20 | 254 | 6.4 | 16.1 | 0.00 | 0.33 | 0.33 | 75 | 1009.2 |
| 20260506212438 | 20 | 257 | 6.4 | 16.1 | 0.00 | 0.33 | 0.33 | 74 | 1009.2 |
| 20260506212312 | 20 | 202 | 8.0 | 20.9 | 0.00 | 0.33 | 0.33 | 74 | 1009.3 |
| 20260506212309 | 20 | 161 | 8.0 | 20.9 | 0.00 | 0.33 | 0.33 | 74 | 1009.2 |
| 20260506212128 | 20 | 202 | 6.4 | 20.9 | 0.00 | 0.33 | 0.33 | 74 | 1009.3 |
| 20260506212035 | 20 | 183 | 6.4 | 20.9 | 0.00 | 0.33 | 0.33 | 74 | 1009.3 |
| 20260506211929 | 20 | 136 | 4.8 | 20.9 | 0.00 | 0.33 | 0.33 | 75 | 1009.4 |
| 20260506211849 | 20 | 184 | 4.8 | 20.9 | 0.00 | 0.33 | 0.33 | 75 | 1009.3 |
| 20260506211744 | 20 | 161 | 6.4 | 20.9 | 0.00 | 0.33 | 0.33 | 74 | 1009.3 |
| 20260506211652 | 20 | 188 | 9.7 | 20.9 | 0.00 | 0.33 | 0.33 | 74 | 1009.3 |
| 20260506211551 | 20 | 157 | 11.3 | 20.9 | 0.00 | 0.33 | 0.33 | 74 | 1009.3 |
| 20260506211438 | 20 | 236 | 9.7 | 22.5 | 0.00 | 0.33 | 0.33 | 74 | 1009.2 |
| 20260506211333 | 20 | 142 | 11.3 | 22.5 | 0.00 | 0.33 | 0.33 | 74 | 1009.1 |
| 20260506211215 | 20 | 257 | 9.7 | 22.5 | 0.00 | 0.33 | 0.33 | 74 | 1009.2 |
| 20260506211115 | 20 | 146 | 6.4 | 22.5 | 0.00 | 0.33 | 0.33 | 76 | 1009.2 |
| 20260506211043 | 20 | 246 | 4.8 | 22.5 | 0.00 | 0.33 | 0.33 | 75 | 1009.2 |
| 20260506210921 | 20 | 222 | 3.2 | 22.5 | 0.00 | 0.33 | 0.33 | 76 | 1009.2 |
| 20260506210822 | 20 | 121 | 6.4 | 22.5 | 0.00 | 0.33 | 0.33 | 75 | 1009.2 |
| 20260506210708 | 20 | 173 | 9.7 | 22.5 | 0.00 | 0.33 | 0.33 | 74 | 1009.1 |
| 20260506210539 | 20 | 272 | 4.8 | 14.5 | 0.00 | 0.33 | 0.33 | 75 | 1009.2 |
| 20260506210501 | 20 | 192 | 6.4 | 14.5 | 0.00 | 0.33 | 0.33 | 75 | 1009.2 |
| 20260506210341 | 20 | 225 | 8.0 | 19.3 | 0.00 | 0.33 | 0.33 | 75 | 1009.3 |
| 20260506210245 | 20 | 194 | 8.0 | 20.9 | 0.00 | 0.33 | 0.33 | 75 | 1009.2 |
| 20260506210147 | 20 | 192 | 8.0 | 20.9 | 0.00 | 0.33 | 0.33 | 74 | 1009.2 |
| 20260506210050 | 20 | 221 | 8.0 | 20.9 | 0.00 | 0.33 | 0.33 | 75 | 1009.2 |
| 20260506205942 | 20 | 180 | 6.4 | 20.9 | 0.00 | 0.33 | 0.33 | 75 | 1009.2 |
| 20260506205822 | 20 | 161 | 6.4 | 20.9 | 0.00 | 0.33 | 0.33 | 76 | 1009.2 |
| 20260506205736 | 20 | 202 | 8.0 | 20.9 | 0.00 | 0.33 | 0.33 | 76 | 1009.2 |
| 20260506205628 | 20 | 180 | 8.0 | 20.9 | 0.00 | 0.33 | 0.33 | 75 | 1009.2 |
| 20260506205519 | 20 | 216 | 9.7 | 20.9 | 0.00 | 0.33 | 0.33 | 76 | 1009.1 |
| 20260506205440 | 20 | 234 | 6.4 | 20.9 | 0.00 | 0.33 | 0.33 | 75 | 1009.0 |
| 20260506205340 | 20 | 202 | 1.6 | 17.7 | 0.00 | 0.33 | 0.33 | 76 | 1009.0 |
| 20260506205241 | 20 | 180 | 1.6 | 16.1 | 0.00 | 0.33 | 0.33 | 76 | 1008.9 |
| 20260506205136 | 20 | 188 | 6.4 | 16.1 | 0.00 | 0.33 | 0.33 | 75 | 1009.1 |
| 20260506205038 | 20 | 196 | 6.4 | 16.1 | 0.00 | 0.33 | 0.33 | 75 | 1009.1 |
| 20260506204936 | 20 | 169 | 8.0 | 16.1 | 0.00 | 0.33 | 0.33 | 75 | 1009.1 |
| 20260506204834 | 20 | 154 | 8.0 | 16.1 | 0.00 | 0.33 | 0.33 | 76 | 1009.1 |
| 20260506204728 | 20 | 175 | 4.8 | 14.5 | 0.00 | 0.33 | 0.33 | 77 | 1009.2 |
| 20260506204632 | 20 | 205 | 6.4 | 19.3 | 0.00 | 0.33 | 0.33 | 76 | 1009.1 |
| 20260506204422 | 20 | 207 | 6.4 | 19.3 | 0.00 | 0.33 | 0.33 | 77 | 1009.2 |
| 20260506204328 | 20 | 246 | 4.8 | 19.3 | 0.00 | 0.33 | 0.33 | 76 | 1009.1 |
| 20260506204224 | 20 | 178 | 3.2 | 19.3 | 0.00 | 0.33 | 0.33 | 76 | 1009.0 |
| 20260506204143 | 20 | 151 | 4.8 | 19.3 | 0.00 | 0.33 | 0.33 | 77 | 1009.0 |
| 20260506204043 | 20 | 329 | 4.8 | 19.3 | 0.00 | 0.33 | 0.33 | 77 | 1009.0 |
| 20260506203923 | 20 | 204 | 6.4 | 19.3 | 0.00 | 0.33 | 0.33 | 76 | 1009.1 |
| 20260506203825 | 20 | 171 | 4.8 | 19.3 | 0.00 | 0.33 | 0.33 | 77 | 1009.1 |
| 20260506203751 | 20 | 254 | 6.4 | 17.7 | 0.00 | 0.33 | 0.33 | 78 | 1009.1 |
| 20260506203636 | 20 | 165 | 6.4 | 16.1 | 0.00 | 0.33 | 0.33 | 77 | 1009.1 |
| 20260506203526 | 20 | 155 | 4.8 | 16.1 | 0.00 | 0.33 | 0.33 | 77 | 1009.2 |
| 20260506203448 | 20 | 194 | 6.4 | 16.1 | 0.00 | 0.33 | 0.33 | 77 | 1009.2 |
| 20260506203336 | 20 | 213 | 4.8 | 16.1 | 0.00 | 0.33 | 0.33 | 77 | 1009.2 |
| 20260506203244 | 20 | 210 | 4.8 | 12.9 | 0.00 | 0.33 | 0.33 | 78 | 1009.3 |
| 20260506203128 | 20 | 207 | 6.4 | 12.9 | 0.00 | 0.33 | 0.33 | 77 | 1009.2 |
| 20260506202932 | 20 | 186 | 3.2 | 16.1 | 0.00 | 0.33 | 0.33 | 78 | 1009.2 |
| 20260506202843 | 20 | 206 | 1.6 | 16.1 | 0.00 | 0.33 | 0.33 | 79 | 1009.2 |
| 20260506202738 | 20 | 211 | 1.6 | 16.1 | 0.00 | 0.33 | 0.33 | 78 | 1009.1 |
| 20260506202617 | 20 | 209 | 1.6 | 16.1 | 0.00 | 0.33 | 0.33 | 78 | 1009.0 |
| 20260506202519 | 20 | 156 | 1.6 | 16.1 | 0.00 | 0.33 | 0.33 | 77 | 1008.9 |
| 20260506202442 | 20 | 182 | 4.8 | 16.1 | 0.00 | 0.33 | 0.33 | 78 | 1009.0 |
| 20260506202339 | 20 | 121 | 6.4 | 16.1 | 0.00 | 0.33 | 0.33 | 78 | 1008.9 |
| 20260506202241 | 20 | 180 | 6.4 | 16.1 | 0.00 | 0.33 | 0.33 | 77 | 1009.0 |
| 20260506202116 | 20 | 44 | 6.4 | 16.1 | 0.00 | 0.33 | 0.33 | 78 | 1009.1 |
| 20260506202113 | 20 | 219 | 4.8 | 14.5 | 0.00 | 0.33 | 0.33 | 78 | 1009.1 |
| 20260506201936 | 19 | 198 | 4.8 | 14.5 | 0.00 | 0.33 | 0.33 | 78 | 1009.2 |
| 20260506201817 | 19 | 192 | 4.8 | 14.5 | 0.00 | 0.33 | 0.33 | 78 | 1009.2 |
| 20260506201731 | 19 | 272 | 4.8 | 17.7 | 0.00 | 0.33 | 0.33 | 77 | 1009.2 |
| 20260506201653 | 19 | 148 | 4.8 | 17.7 | 0.00 | 0.33 | 0.33 | 78 | 1009.2 |
| 20260506201432 | 19 | 238 | 6.4 | 17.7 | 0.00 | 0.33 | 0.33 | 78 | 1009.2 |
| 20260506201401 | 19 | 235 | 6.4 | 17.7 | 0.00 | 0.33 | 0.33 | 78 | 1009.3 |
| 20260506201232 | 19 | 163 | 6.4 | 17.7 | 0.00 | 0.33 | 0.33 | 78 | 1009.2 |
| 20260506201143 | 19 | 200 | 6.4 | 17.7 | 0.00 | 0.33 | 0.33 | 78 | 1009.3 |
| 20260506201032 | 19 | 198 | 9.7 | 17.7 | 0.00 | 0.33 | 0.33 | 78 | 1009.3 |
| 20260506200928 | 19 | 223 | 6.4 | 17.7 | 0.00 | 0.33 | 0.33 | 78 | 1009.3 |
| 20260506200835 | 19 | 254 | 3.2 | 14.5 | 0.00 | 0.33 | 0.33 | 78 | 1009.2 |
| 20260506200718 | 19 | 213 | 4.8 | 14.5 | 0.00 | 0.33 | 0.33 | 78 | 1009.2 |
| 20260506200639 | 19 | 238 | 4.8 | 14.5 | 0.00 | 0.33 | 0.33 | 78 | 1009.1 |
| 20260506200537 | 19 | 146 | 6.4 | 14.5 | 0.00 | 0.33 | 0.33 | 78 | 1009.2 |
| 20260506200439 | 19 | 271 | 6.4 | 16.1 | 0.00 | 0.33 | 0.33 | 78 | 1009.2 |
| 20260506200322 | 19 | 171 | 6.4 | 16.1 | 0.00 | 0.33 | 0.33 | 78 | 1009.1 |
| 20260506200253 | 19 | 184 | 6.4 | 16.1 | 0.00 | 0.33 | 0.33 | 78 | 1009.1 |
| 20260506200211 | 19 | 241 | 6.4 | 16.1 | 0.00 | 0.33 | 0.33 | 78 | 1009.1 |
| 20260506200107 | 19 | 163 | 4.8 | 16.1 | 0.00 | 0.33 | 0.33 | 78 | 1009.1 |
| 20260506195939 | 19 | 105 | 4.8 | 16.1 | 0.00 | 0.33 | 0.33 | 78 | 1009.2 |
| 20260506195828 | 19 | 196 | 4.8 | 16.1 | 0.00 | 0.33 | 0.33 | 78 | 1009.2 |
| 20260506195735 | 19 | 169 | 8.0 | 16.1 | 0.00 | 0.33 | 0.33 | 78 | 1009.1 |
| 20260506195618 | 19 | 309 | 8.0 | 16.1 | 0.00 | 0.33 | 0.33 | 78 | 1009.1 |
| 20260506195517 | 19 | 236 | 4.8 | 14.5 | 0.00 | 0.33 | 0.33 | 78 | 1009.1 |
| 20260506195428 | 19 | 196 | 3.2 | 14.5 | 0.00 | 0.33 | 0.33 | 78 | 1009.1 |
| 20260506195330 | 19 | 196 | 4.8 | 14.5 | 0.00 | 0.33 | 0.33 | 78 | 1009.2 |
| 20260506195216 | 19 | 178 | 4.8 | 14.5 | 0.00 | 0.33 | 0.33 | 78 | 1009.3 |
| 20260506195145 | 19 | 152 | 4.8 | 14.5 | 0.00 | 0.33 | 0.33 | 78 | 1009.4 |
| 20260506195014 | 19 | 259 | 6.4 | 17.7 | 0.00 | 0.33 | 0.33 | 78 | 1009.5 |
| 20260506194917 | 19 | 142 | 6.4 | 17.7 | 0.00 | 0.33 | 0.33 | 78 | 1009.2 |
| 20260506194830 | 19 | 267 | 6.4 | 17.7 | 0.00 | 0.33 | 0.33 | 78 | 1009.3 |
| 20260506194742 | 19 | 198 | 4.8 | 17.7 | 0.00 | 0.33 | 0.33 | 78 | 1009.3 |
| 20260506194643 | 19 | 125 | 4.8 | 17.7 | 0.00 | 0.33 | 0.33 | 79 | 1009.3 |
| 20260506194614 | 19 | 179 | 6.4 | 22.5 | 0.00 | 0.33 | 0.33 | 78 | 1009.3 |
| 20260506194422 | 19 | 174 | 8.0 | 22.5 | 0.00 | 0.33 | 0.33 | 78 | 1009.4 |
| 20260506194326 | 19 | 194 | 8.0 | 22.5 | 0.00 | 0.33 | 0.33 | 77 | 1009.5 |
| 20260506194221 | 19 | 228 | 9.7 | 22.5 | 0.00 | 0.33 | 0.33 | 78 | 1009.6 |
| 20260506194120 | 19 | 206 | 9.7 | 22.5 | 0.00 | 0.33 | 0.33 | 77 | 1009.5 |
| 20260506194047 | 19 | 223 | 8.0 | 22.5 | 0.00 | 0.33 | 0.33 | 77 | 1009.5 |
| 20260506193944 | 19 | 169 | 6.4 | 22.5 | 0.00 | 0.33 | 0.33 | 79 | 1009.6 |
| 20260506193835 | 19 | 182 | 8.0 | 22.5 | 0.00 | 0.33 | 0.33 | 78 | 1009.6 |
| 20260506193717 | 19 | 181 | 4.8 | 22.5 | 0.00 | 0.33 | 0.33 | 78 | 1009.6 |
| 20260506193625 | 19 | 246 | 4.8 | 19.3 | 0.00 | 0.33 | 0.33 | 78 | 1009.6 |
| 20260506193507 | 19 | 227 | 6.4 | 19.3 | 0.00 | 0.33 | 0.33 | 78 | 1009.6 |
| 20260506193347 | 19 | 128 | 6.4 | 29.0 | 0.00 | 0.33 | 0.33 | 78 | 1009.5 |
| 20260506193218 | 19 | 246 | 6.4 | 29.0 | 0.00 | 0.33 | 0.33 | 78 | 1009.4 |
| 20260506193203 | 19 | 218 | 6.4 | 29.0 | 0.00 | 0.33 | 0.33 | 78 | 1009.5 |
| 20260506193108 | 19 | 215 | 3.2 | 29.0 | 0.00 | 0.33 | 0.33 | 78 | 1009.6 |
| 20260506192915 | 19 | 212 | 3.2 | 29.0 | 0.00 | 0.33 | 0.33 | 78 | 1009.6 |
| 20260506192817 | 19 | 225 | 6.4 | 29.0 | 0.00 | 0.33 | 0.33 | 77 | 1009.8 |
| 20260506192733 | 19 | 178 | 9.7 | 29.0 | 0.00 | 0.33 | 0.33 | 77 | 1009.8 |
| 20260506192640 | 19 | 196 | 8.0 | 29.0 | 0.00 | 0.33 | 0.33 | 77 | 1009.9 |
| 20260506192532 | 19 | 171 | 4.8 | 22.5 | 0.00 | 0.33 | 0.33 | 78 | 1009.8 |
| 20260506192422 | 19 | 180 | 4.8 | 22.5 | 0.00 | 0.33 | 0.33 | 78 | 1010.0 |
| 20260506192310 | 19 | 194 | 6.4 | 22.5 | 0.00 | 0.33 | 0.33 | 78 | 1010.0 |
| 20260506192235 | 19 | 164 | 8.0 | 22.5 | 0.00 | 0.33 | 0.33 | 77 | 1010.0 |
| 20260506192135 | 19 | 214 | 6.4 | 22.5 | 0.00 | 0.33 | 0.33 | 77 | 1009.9 |
| 20260506192028 | 19 | 253 | 4.8 | 22.5 | 0.00 | 0.33 | 0.33 | 77 | 1009.9 |
| 20260506191936 | 19 | 188 | 9.7 | 22.5 | 0.00 | 0.33 | 0.33 | 77 | 1009.9 |
| 20260506191832 | 19 | 149 | 11.3 | 22.5 | 0.00 | 0.33 | 0.33 | 76 | 1010.0 |
| 20260506191732 | 19 | 205 | 6.4 | 22.5 | 0.00 | 0.33 | 0.33 | 77 | 1010.0 |
| 20260506191654 | 19 | 261 | 4.8 | 22.5 | 0.00 | 0.33 | 0.33 | 77 | 1009.9 |
| 20260506191614 | 19 | 304 | 6.4 | 22.5 | 0.00 | 0.33 | 0.33 | 77 | 1009.9 |
| 20260506191420 | 19 | 233 | 6.4 | 22.5 | 0.00 | 0.33 | 0.33 | 78 | 1009.9 |
| 20260506191325 | 19 | 268 | 9.7 | 22.5 | 0.00 | 0.33 | 0.33 | 77 | 1010.0 |
| 20260506191247 | 19 | 157 | 9.7 | 22.5 | 0.00 | 0.33 | 0.33 | 77 | 1010.0 |
| 20260506191138 | 19 | 227 | 9.7 | 22.5 | 0.00 | 0.33 | 0.33 | 76 | 1010.0 |
| 20260506191024 | 19 | 246 | 9.7 | 22.5 | 0.00 | 0.33 | 0.33 | 77 | 1010.0 |
| 20260506190927 | 19 | 182 | 9.7 | 22.5 | 0.00 | 0.33 | 0.33 | 77 | 1010.1 |
| 20260506190827 | 19 | 207 | 9.7 | 22.5 | 0.00 | 0.33 | 0.33 | 76 | 1010.0 |
| 20260506190740 | 19 | 200 | 8.0 | 22.5 | 0.00 | 0.33 | 0.33 | 77 | 1010.0 |
| 20260506190635 | 20 | 211 | 8.0 | 22.5 | 0.00 | 0.33 | 0.33 | 77 | 1010.1 |
| 20260506190525 | 19 | 246 | 8.0 | 22.5 | 0.00 | 0.33 | 0.33 | 77 | 1010.0 |
| 20260506190435 | 20 | 303 | 6.4 | 22.5 | 0.00 | 0.33 | 0.33 | 78 | 1009.9 |
| 20260506190341 | 19 | 238 | 4.8 | 17.7 | 0.00 | 0.33 | 0.33 | 77 | 1009.7 |
| 20260506190230 | 19 | 252 | 6.4 | 17.7 | 0.00 | 0.33 | 0.33 | 76 | 1009.7 |
| 20260506190157 | 19 | 241 | 6.4 | 17.7 | 0.00 | 0.33 | 0.33 | 78 | 1009.9 |
| 20260506190131 | 19 | 206 | 8.0 | 17.7 | 0.00 | 0.33 | 0.33 | 77 | 1009.9 |
| 20260506185938 | 19 | 227 | 9.7 | 17.7 | 0.00 | 0.33 | 0.33 | 77 | 1009.9 |
| 20260506185847 | 19 | 128 | 9.7 | 20.9 | 0.00 | 0.33 | 0.33 | 77 | 1009.8 |
| 20260506185741 | 19 | 209 | 8.0 | 20.9 | 0.00 | 0.33 | 0.33 | 76 | 1009.9 |
| 20260506185637 | 19 | 175 | 8.0 | 20.9 | 0.00 | 0.33 | 0.33 | 77 | 1009.9 |
| 20260506185515 | 19 | 144 | 9.7 | 20.9 | 0.00 | 0.33 | 0.33 | 77 | 1009.9 |
| 20260506185427 | 19 | 258 | 9.7 | 20.9 | 0.00 | 0.33 | 0.33 | 77 | 1009.8 |
| 20260506185321 | 19 | 203 | 4.8 | 20.9 | 0.00 | 0.33 | 0.33 | 78 | 1009.8 |
| 20260506185226 | 19 | 238 | 4.8 | 20.9 | 0.00 | 0.33 | 0.33 | 78 | 1009.9 |
| 20260506185141 | 19 | 260 | 9.7 | 20.9 | 0.00 | 0.33 | 0.33 | 77 | 1009.8 |
| 20260506185035 | 19 | 259 | 8.0 | 20.9 | 0.00 | 0.33 | 0.33 | 77 | 1009.8 |
| 20260506184924 | 19 | 273 | 8.0 | 16.1 | 0.00 | 0.33 | 0.33 | 78 | 1009.9 |
| 20260506184824 | 19 | 207 | 8.0 | 16.1 | 0.00 | 0.33 | 0.33 | 77 | 1009.9 |
| 20260506184732 | 19 | 207 | 8.0 | 16.1 | 0.00 | 0.33 | 0.33 | 77 | 1010.0 |
| 20260506184704 | 19 | 210 | 8.0 | 16.1 | 0.00 | 0.33 | 0.33 | 78 | 1010.1 |
| 20260506184624 | 19 | 217 | 6.4 | 16.1 | 0.00 | 0.33 | 0.33 | 78 | 1010.2 |
| 20260506184424 | 19 | 246 | 4.8 | 16.1 | 0.00 | 0.33 | 0.33 | 78 | 1010.2 |
| 20260506184335 | 19 | 192 | 3.2 | 19.3 | 0.00 | 0.33 | 0.33 | 77 | 1010.1 |
| 20260506184237 | 19 | 197 | 4.8 | 19.3 | 0.00 | 0.33 | 0.33 | 77 | 1010.1 |
| 20260506184138 | 19 | 149 | 8.0 | 19.3 | 0.00 | 0.33 | 0.33 | 78 | 1010.1 |
| 20260506184035 | 19 | 100 | 6.4 | 19.3 | 0.00 | 0.33 | 0.33 | 78 | 1010.1 |
| 20260506183930 | 19 | 229 | 6.4 | 19.3 | 0.00 | 0.33 | 0.33 | 77 | 1010.0 |
| 20260506183841 | 19 | 169 | 6.4 | 19.3 | 0.00 | 0.33 | 0.33 | 77 | 1010.1 |
| 20260506183718 | 19 | 229 | 6.4 | 19.3 | 0.00 | 0.33 | 0.33 | 78 | 1009.9 |
| 20260506183637 | 19 | 212 | 8.0 | 19.3 | 0.00 | 0.33 | 0.33 | 78 | 1009.9 |
| 20260506183520 | 19 | 171 | 6.4 | 19.3 | 0.00 | 0.33 | 0.33 | 77 | 1009.9 |
| 20260506183426 | 19 | 170 | 6.4 | 16.1 | 0.00 | 0.33 | 0.33 | 78 | 1010.0 |
| 20260506183337 | 19 | 292 | 6.4 | 19.3 | 0.00 | 0.33 | 0.33 | 78 | 1010.1 |
| 20260506183230 | 19 | 198 | 6.4 | 19.3 | 0.00 | 0.33 | 0.33 | 78 | 1010.2 |
| 20260506183209 | 19 | 257 | 6.4 | 19.3 | 0.00 | 0.33 | 0.33 | 78 | 1010.2 |
| 20260506183109 | 19 | 195 | 8.0 | 19.3 | 0.00 | 0.33 | 0.33 | 77 | 1010.3 |
| 20260506182930 | 19 | 243 | 6.4 | 19.3 | 0.00 | 0.33 | 0.33 | 77 | 1010.4 |
| 20260506182825 | 19 | 193 | 8.0 | 19.3 | 0.00 | 0.33 | 0.33 | 78 | 1010.5 |
| 20260506182728 | 19 | 254 | 8.0 | 20.9 | 0.00 | 0.33 | 0.33 | 77 | 1010.4 |
| 20260506182631 | 19 | 98 | 4.8 | 20.9 | 0.00 | 0.33 | 0.33 | 77 | 1010.5 |
| 20260506182531 | 19 | 225 | 4.8 | 20.9 | 0.00 | 0.33 | 0.33 | 77 | 1010.6 |
| 20260506182420 | 19 | 196 | 6.4 | 20.9 | 0.00 | 0.33 | 0.33 | 77 | 1010.6 |
| 20260506182340 | 19 | 309 | 4.8 | 20.9 | 0.00 | 0.33 | 0.33 | 78 | 1010.9 |
| 20260506182239 | 19 | 183 | 6.4 | 20.9 | 0.00 | 0.33 | 0.33 | 78 | 1010.7 |
| 20260506182139 | 19 | 263 | 8.0 | 20.9 | 0.00 | 0.33 | 0.33 | 78 | 1010.7 |
| 20260506182033 | 19 | 232 | 9.7 | 20.9 | 0.00 | 0.33 | 0.33 | 78 | 1010.7 |
| 20260506181927 | 19 | 228 | 6.4 | 20.9 | 0.00 | 0.33 | 0.33 | 78 | 1010.4 |
| 20260506181817 | 19 | 152 | 4.8 | 17.7 | 0.00 | 0.33 | 0.33 | 79 | 1010.5 |
| 20260506181739 | 19 | 244 | 6.4 | 17.7 | 0.00 | 0.33 | 0.33 | 79 | 1010.4 |
| 20260506181645 | 19 | 238 | 6.4 | 17.7 | 0.00 | 0.33 | 0.33 | 79 | 1010.4 |
| 20260506181553 | 19 | 140 | 8.0 | 17.7 | 0.00 | 0.33 | 0.33 | 78 | 1010.4 |
| 20260506181427 | 19 | 195 | 8.0 | 17.7 | 0.00 | 0.33 | 0.33 | 78 | 1010.3 |
| 20260506181325 | 19 | 202 | 6.4 | 16.1 | 0.00 | 0.33 | 0.33 | 78 | 1010.4 |
| 20260506181227 | 19 | 190 | 6.4 | 16.1 | 0.00 | 0.33 | 0.33 | 78 | 1010.4 |
| 20260506181137 | 19 | 174 | 6.4 | 16.1 | 0.00 | 0.33 | 0.33 | 78 | 1010.4 |
| 20260506181055 | 19 | 208 | 4.8 | 17.7 | 0.00 | 0.33 | 0.33 | 79 | 1010.4 |
| 20260506180920 | 19 | 224 | 3.2 | 17.7 | 0.00 | 0.33 | 0.33 | 81 | 1010.4 |
| 20260506180838 | 19 | 229 | 3.2 | 17.7 | 0.00 | 0.33 | 0.33 | 80 | 1010.5 |
| 20260506180737 | 18 | 182 | 4.8 | 19.3 | 0.00 | 0.33 | 0.33 | 80 | 1010.4 |
| 20260506180644 | 18 | 211 | 6.4 | 24.1 | 0.00 | 0.33 | 0.33 | 78 | 1010.4 |
| 20260506180548 | 18 | 188 | 6.4 | 24.1 | 0.00 | 0.33 | 0.33 | 78 | 1010.3 |
| 20260506180438 | 18 | 204 | 8.0 | 24.1 | 0.00 | 0.33 | 0.33 | 79 | 1010.3 |
| 20260506180320 | 18 | 212 | 6.4 | 24.1 | 0.00 | 0.33 | 0.33 | 79 | 1010.3 |
| 20260506180246 | 18 | 188 | 3.2 | 24.1 | 0.00 | 0.33 | 0.33 | 79 | 1010.5 |
| 20260506180147 | 18 | 130 | 4.8 | 24.1 | 0.00 | 0.33 | 0.33 | 80 | 1010.3 |
| 20260506175943 | 18 | 198 | 9.7 | 24.1 | 0.00 | 0.33 | 0.33 | 79 | 1010.4 |
| 20260506175836 | 18 | 232 | 9.7 | 24.1 | 0.00 | 0.33 | 0.33 | 79 | 1010.4 |
| 20260506175725 | 18 | 137 | 8.0 | 19.3 | 0.00 | 0.33 | 0.33 | 78 | 1010.4 |
| 20260506175621 | 18 | 153 | 8.0 | 20.9 | 0.00 | 0.33 | 0.33 | 79 | 1010.4 |
| 20260506175528 | 18 | 262 | 6.4 | 17.7 | 0.00 | 0.33 | 0.33 | 80 | 1010.4 |
| 20260506175424 | 18 | 170 | 8.0 | 17.7 | 0.00 | 0.33 | 0.33 | 79 | 1010.4 |
| 20260506175345 | 18 | 212 | 6.4 | 17.7 | 0.00 | 0.33 | 0.33 | 81 | 1010.5 |
| 20260506175240 | 18 | 262 | 4.8 | 20.9 | 0.00 | 0.33 | 0.33 | 80 | 1010.5 |
| 20260506175144 | 18 | 268 | 6.4 | 20.9 | 0.00 | 0.33 | 0.33 | 79 | 1010.4 |
| 20260506175047 | 18 | 205 | 9.7 | 20.9 | 0.00 | 0.33 | 0.33 | 80 | 1010.4 |
| 20260506174927 | 18 | 160 | 8.0 | 20.9 | 0.00 | 0.33 | 0.33 | 79 | 1010.4 |
| 20260506174837 | 18 | 259 | 4.8 | 20.9 | 0.00 | 0.33 | 0.33 | 81 | 1010.5 |
| 20260506174810 | 18 | 193 | 3.2 | 20.9 | 0.00 | 0.33 | 0.33 | 80 | 1010.6 |
| 20260506174654 | 18 | 161 | 8.0 | 20.9 | 0.00 | 0.33 | 0.33 | 80 | 1010.5 |
| 20260506174630 | 18 | 184 | 8.0 | 20.9 | 0.00 | 0.33 | 0.33 | 80 | 1010.5 |
| 20260506174432 | 18 | 191 | 4.8 | 17.7 | 0.00 | 0.33 | 0.33 | 80 | 1010.7 |
| 20260506174331 | 18 | 269 | 6.4 | 16.1 | 0.00 | 0.33 | 0.33 | 82 | 1010.5 |
| 20260506174243 | 18 | 271 | 6.4 | 16.1 | 0.00 | 0.33 | 0.33 | 80 | 1010.6 |
| 20260506174130 | 18 | 225 | 8.0 | 16.1 | 0.00 | 0.33 | 0.33 | 80 | 1010.6 |
| 20260506174024 | 18 | 225 | 8.0 | 16.1 | 0.00 | 0.33 | 0.33 | 81 | 1010.7 |
| 20260506173940 | 18 | 160 | 6.4 | 16.1 | 0.00 | 0.33 | 0.33 | 81 | 1010.8 |
| 20260506173842 | 18 | 252 | 6.4 | 16.1 | 0.00 | 0.33 | 0.33 | 80 | 1010.7 |
| 20260506173722 | 18 | 188 | 8.0 | 16.1 | 0.00 | 0.33 | 0.33 | 80 | 1010.6 |
| 20260506173640 | 18 | 162 | 6.4 | 16.1 | 0.00 | 0.33 | 0.33 | 80 | 1010.7 |
| 20260506173524 | 18 | 130 | 4.8 | 16.1 | 0.00 | 0.33 | 0.33 | 80 | 1010.6 |
| 20260506173423 | 18 | 171 | 4.8 | 14.5 | 0.00 | 0.33 | 0.33 | 81 | 1010.7 |
| 20260506173327 | 18 | 159 | 4.8 | 16.1 | 0.00 | 0.33 | 0.33 | 81 | 1010.9 |
| 20260506173253 | 18 | 189 | 4.8 | 20.9 | 0.00 | 0.33 | 0.33 | 81 | 1010.8 |
| 20260506173150 | 18 | 163 | 6.4 | 20.9 | 0.00 | 0.33 | 0.33 | 81 | 1010.7 |
| 20260506173110 | 18 | 188 | 8.0 | 22.5 | 0.00 | 0.33 | 0.33 | 81 | 1010.7 |
| 20260506172940 | 18 | 188 | 6.4 | 22.5 | 0.00 | 0.33 | 0.33 | 81 | 1010.8 |
| 20260506172834 | 18 | 198 | 4.8 | 22.5 | 0.00 | 0.33 | 0.33 | 82 | 1010.8 |
| 20260506172725 | 18 | 153 | 4.8 | 22.5 | 0.00 | 0.33 | 0.33 | 82 | 1010.7 |
| 20260506172642 | 18 | 213 | 4.8 | 22.5 | 0.00 | 0.33 | 0.33 | 81 | 1010.7 |
| 20260506172541 | 18 | 130 | 9.7 | 22.5 | 0.00 | 0.33 | 0.33 | 82 | 1010.7 |
| 20260506172430 | 18 | 181 | 9.7 | 22.5 | 0.00 | 0.33 | 0.33 | 81 | 1010.6 |
| 20260506172337 | 18 | 196 | 9.7 | 22.5 | 0.00 | 0.33 | 0.33 | 82 | 1010.7 |
| 20260506172222 | 18 | 178 | 8.0 | 22.5 | 0.00 | 0.33 | 0.33 | 82 | 1010.6 |
| 20260506172148 | 18 | 178 | 6.4 | 17.7 | 0.00 | 0.33 | 0.33 | 83 | 1010.7 |
| 20260506172024 | 18 | 219 | 3.2 | 17.7 | 0.00 | 0.33 | 0.33 | 82 | 1010.6 |
| 20260506171952 | 18 | 233 | 4.8 | 17.7 | 0.00 | 0.33 | 0.33 | 82 | 1010.6 |
| 20260506171845 | 18 | 188 | 6.4 | 17.7 | 0.00 | 0.33 | 0.33 | 82 | 1010.6 |
| 20260506171717 | 18 | 159 | 8.0 | 17.7 | 0.00 | 0.33 | 0.33 | 83 | 1010.6 |
| 20260506171648 | 18 | 259 | 8.0 | 17.7 | 0.00 | 0.33 | 0.33 | 82 | 1010.6 |
| 20260506171556 | 18 | 180 | 4.8 | 17.7 | 0.00 | 0.33 | 0.33 | 83 | 1010.5 |
| 20260506171435 | 18 | 217 | 4.8 | 17.7 | 0.00 | 0.33 | 0.33 | 83 | 1010.6 |
| 20260506171319 | 18 | 128 | 6.4 | 17.7 | 0.00 | 0.33 | 0.33 | 82 | 1010.5 |
| 20260506171239 | 18 | 229 | 9.7 | 17.7 | 0.00 | 0.33 | 0.33 | 83 | 1010.4 |
| 20260506171124 | 18 | 227 | 9.7 | 20.9 | 0.00 | 0.33 | 0.33 | 84 | 1010.4 |
| 20260506171044 | 18 | 234 | 4.8 | 19.3 | 0.00 | 0.33 | 0.33 | 83 | 1010.6 |
| 20260506170937 | 18 | 256 | 3.2 | 19.3 | 0.00 | 0.33 | 0.33 | 83 | 1010.5 |
| 20260506170842 | 18 | 190 | 4.8 | 19.3 | 0.00 | 0.33 | 0.33 | 83 | 1010.6 |
| 20260506170728 | 18 | 184 | 9.7 | 19.3 | 0.00 | 0.33 | 0.33 | 83 | 1010.6 |
| 20260506170624 | 18 | 192 | 9.7 | 19.3 | 0.00 | 0.33 | 0.33 | 82 | 1010.5 |
| 20260506170524 | 18 | 155 | 6.4 | 17.7 | 0.00 | 0.33 | 0.33 | 83 | 1010.6 |
| 20260506170421 | 18 | 229 | 8.0 | 17.7 | 0.00 | 0.33 | 0.33 | 83 | 1010.6 |
| 20260506170333 | 18 | 196 | 6.4 | 19.3 | 0.00 | 0.33 | 0.33 | 84 | 1010.7 |
| 20260506170227 | 18 | 217 | 3.2 | 19.3 | 0.03 | 0.33 | 0.33 | 86 | 1010.7 |
| 20260506170207 | 17 | 161 | 6.4 | 19.3 | 0.03 | 0.33 | 0.33 | 84 | 1010.7 |
| 20260506170121 | 18 | 271 | 8.0 | 19.3 | 0.03 | 0.33 | 0.33 | 84 | 1010.6 |
| 20260506165927 | 18 | 222 | 4.8 | 14.5 | 0.03 | 0.33 | 0.33 | 85 | 1010.6 |
| 20260506165839 | 17 | 198 | 3.2 | 14.5 | 0.03 | 0.33 | 0.33 | 85 | 1010.5 |
| 20260506165732 | 17 | 209 | 6.4 | 14.5 | 0.03 | 0.33 | 0.33 | 84 | 1010.4 |
| 20260506165624 | 17 | 250 | 6.4 | 14.5 | 0.03 | 0.33 | 0.33 | 85 | 1010.4 |
| 20260506165546 | 17 | 198 | 4.8 | 12.9 | 0.03 | 0.33 | 0.33 | 85 | 1010.5 |
| 20260506165437 | 17 | 157 | 4.8 | 12.9 | 0.03 | 0.33 | 0.33 | 87 | 1010.6 |
| 20260506165333 | 17 | 202 | 4.8 | 12.9 | 0.03 | 0.33 | 0.33 | 86 | 1010.6 |
| 20260506165233 | 17 | 89 | 6.4 | 12.9 | 0.03 | 0.33 | 0.33 | 87 | 1010.7 |
| 20260506165133 | 17 | 157 | 4.8 | 12.9 | 0.03 | 0.33 | 0.33 | 87 | 1010.8 |
| 20260506165039 | 17 | 206 | 4.8 | 12.9 | 0.03 | 0.33 | 0.33 | 87 | 1010.9 |
| 20260506164941 | 17 | 204 | 6.4 | 12.9 | 0.05 | 0.33 | 0.33 | 86 | 1011.0 |
| 20260506164824 | 17 | 240 | 6.4 | 12.9 | 0.05 | 0.33 | 0.33 | 86 | 1011.0 |
| 20260506164723 | 17 | 227 | 6.4 | 12.9 | 0.05 | 0.33 | 0.33 | 87 | 1011.0 |
| 20260506164638 | 17 | 210 | 4.8 | 14.5 | 0.05 | 0.33 | 0.33 | 87 | 1011.0 |
| 20260506164635 | 17 | 188 | 3.2 | 11.3 | 0.05 | 0.33 | 0.33 | 88 | 1011.0 |
| 20260506164425 | 17 | 196 | 3.2 | 11.3 | 0.05 | 0.33 | 0.33 | 87 | 1011.0 |
| 20260506164328 | 17 | 234 | 3.2 | 11.3 | 0.05 | 0.33 | 0.33 | 87 | 1011.1 |
| 20260506164246 | 17 | 228 | 4.8 | 11.3 | 0.05 | 0.33 | 0.33 | 88 | 1011.3 |
| 20260506164145 | 17 | 166 | 6.4 | 16.1 | 0.05 | 0.33 | 0.33 | 87 | 1011.3 |
| 20260506164026 | 17 | 231 | 3.2 | 16.1 | 0.05 | 0.33 | 0.33 | 88 | 1011.3 |
| 20260506163922 | 17 | 117 | 4.8 | 16.1 | 0.08 | 0.33 | 0.33 | 87 | 1011.3 |
| 20260506163835 | 17 | 217 | 8.0 | 16.1 | 0.08 | 0.33 | 0.33 | 87 | 1011.2 |
| 20260506163725 | 17 | 198 | 6.4 | 16.1 | 0.08 | 0.33 | 0.33 | 87 | 1011.2 |
| 20260506163635 | 17 | 175 | 3.2 | 16.1 | 0.08 | 0.33 | 0.33 | 87 | 1011.1 |
| 20260506163542 | 16 | 270 | 3.2 | 22.5 | 0.10 | 0.33 | 0.33 | 87 | 1011.1 |
| 20260506163425 | 16 | 203 | 6.4 | 22.5 | 0.10 | 0.33 | 0.33 | 87 | 1011.1 |
| 20260506163328 | 16 | 222 | 4.8 | 22.5 | 0.10 | 0.33 | 0.33 | 87 | 1011.1 |
| 20260506163225 | 16 | 158 | 3.2 | 22.5 | 0.10 | 0.33 | 0.33 | 87 | 1011.1 |
| 20260506163151 | 16 | 167 | 3.2 | 22.5 | 0.10 | 0.33 | 0.33 | 87 | 1011.1 |
| 20260506163112 | 16 | 163 | 1.6 | 22.5 | 0.10 | 0.33 | 0.33 | 88 | 1011.1 |
| 20260506162944 | 16 | 209 | 4.8 | 22.5 | 0.10 | 0.33 | 0.33 | 87 | 1011.2 |
| 20260506162835 | 16 | 157 | 8.0 | 22.5 | 0.10 | 0.33 | 0.33 | 87 | 1011.2 |
| 20260506162726 | 16 | 193 | 8.0 | 24.1 | 0.10 | 0.33 | 0.33 | 87 | 1011.1 |
| 20260506162626 | 16 | 210 | 4.8 | 19.3 | 0.10 | 0.33 | 0.33 | 88 | 1011.1 |
| 20260506162537 | 16 | 219 | 4.8 | 16.1 | 0.10 | 0.33 | 0.33 | 88 | 1011.1 |
| 20260506162432 | 16 | 191 | 4.8 | 16.1 | 0.10 | 0.33 | 0.33 | 88 | 1011.1 |
| 20260506162333 | 16 | 188 | 4.8 | 16.1 | 0.10 | 0.33 | 0.33 | 87 | 1011.1 |
| 20260506162243 | 16 | 157 | 6.4 | 16.1 | 0.10 | 0.33 | 0.33 | 88 | 1011.1 |
| 20260506162130 | 16 | 154 | 8.0 | 16.1 | 0.10 | 0.33 | 0.33 | 88 | 1011.2 |
| 20260506162021 | 16 | 200 | 6.4 | 16.1 | 0.10 | 0.33 | 0.33 | 87 | 1011.2 |
| 20260506161938 | 16 | 181 | 8.0 | 16.1 | 0.15 | 0.33 | 0.33 | 88 | 1011.1 |
| 20260506161828 | 16 | 228 | 6.4 | 16.1 | 0.15 | 0.33 | 0.33 | 87 | 1011.1 |
| 20260506161742 | 16 | 234 | 4.8 | 14.5 | 0.18 | 0.33 | 0.33 | 87 | 1011.0 |
| 20260506161702 | 16 | 156 | 6.4 | 14.5 | 0.20 | 0.33 | 0.33 | 88 | 1010.9 |
| 20260506161557 | 16 | 238 | 8.0 | 16.1 | 0.20 | 0.33 | 0.33 | 87 | 1011.0 |
| 20260506161426 | 16 | 193 | 8.0 | 16.1 | 0.20 | 0.33 | 0.33 | 87 | 1011.0 |
| 20260506161340 | 16 | 257 | 6.4 | 16.1 | 0.20 | 0.33 | 0.33 | 87 | 1011.1 |
| 20260506161212 | 16 | 168 | 6.4 | 16.1 | 0.20 | 0.33 | 0.33 | 87 | 1011.0 |
| 20260506161209 | 16 | 211 | 6.4 | 16.1 | 0.20 | 0.33 | 0.33 | 87 | 1011.1 |
| 20260506161029 | 16 | 190 | 6.4 | 16.1 | 0.20 | 0.33 | 0.33 | 87 | 1011.1 |
| 20260506160923 | 16 | 209 | 6.4 | 16.1 | 0.20 | 0.33 | 0.33 | 87 | 1011.0 |
| 20260506160819 | 16 | 186 | 6.4 | 16.1 | 0.20 | 0.33 | 0.33 | 87 | 1011.1 |
| 20260506160743 | 16 | 153 | 6.4 | 24.1 | 0.23 | 0.33 | 0.33 | 88 | 1011.1 |
| 20260506160633 | 16 | 199 | 6.4 | 24.1 | 0.23 | 0.33 | 0.33 | 87 | 1011.2 |
| 20260506160515 | 16 | 248 | 4.8 | 24.1 | 0.23 | 0.33 | 0.33 | 88 | 1011.2 |
| 20260506160444 | 16 | 227 | 4.8 | 24.1 | 0.23 | 0.33 | 0.33 | 87 | 1011.1 |
| 20260506160331 | 16 | 211 | 8.0 | 24.1 | 0.20 | 0.30 | 0.30 | 87 | 1011.1 |
| 20260506160231 | 16 | 180 | 8.0 | 24.1 | 0.20 | 0.30 | 0.30 | 87 | 1011.1 |
| 20260506160214 | 16 | 263 | 6.4 | 24.1 | 0.20 | 0.30 | 0.30 | 87 | 1011.1 |
| 20260506160134 | 16 | 215 | 9.7 | 24.1 | 0.20 | 0.30 | 0.30 | 87 | 1011.1 |
| 20260506155921 | 16 | 227 | 8.0 | 24.1 | 0.20 | 0.30 | 0.30 | 87 | 1011.1 |
| 20260506155833 | 16 | 150 | 4.8 | 20.9 | 0.20 | 0.30 | 0.30 | 87 | 1011.0 |
| 20260506155735 | 16 | 217 | 4.8 | 20.9 | 0.20 | 0.30 | 0.30 | 87 | 1011.0 |
| 20260506155641 | 16 | 213 | 6.4 | 20.9 | 0.20 | 0.30 | 0.30 | 87 | 1011.1 |
| 20260506155519 | 16 | 156 | 9.7 | 20.9 | 0.20 | 0.30 | 0.30 | 86 | 1011.1 |
| 20260506155433 | 16 | 166 | 6.4 | 20.9 | 0.20 | 0.30 | 0.30 | 87 | 1011.2 |
| 20260506155322 | 16 | 185 | 4.8 | 16.1 | 0.20 | 0.30 | 0.30 | 87 | 1011.2 |
| 20260506155224 | 16 | 150 | 4.8 | 16.1 | 0.20 | 0.30 | 0.30 | 87 | 1011.3 |
| 20260506155120 | 16 | 147 | 6.4 | 16.1 | 0.20 | 0.30 | 0.30 | 86 | 1011.2 |
| 20260506155046 | 16 | 182 | 6.4 | 16.1 | 0.18 | 0.28 | 0.28 | 86 | 1011.3 |
| 20260506154933 | 16 | 190 | 6.4 | 16.1 | 0.18 | 0.28 | 0.28 | 86 | 1011.3 |
| 20260506154845 | 16 | 150 | 8.0 | 16.1 | 0.18 | 0.28 | 0.28 | 86 | 1011.3 |
| 20260506154743 | 16 | 174 | 4.8 | 16.1 | 0.18 | 0.28 | 0.28 | 86 | 1011.3 |
| 20260506154649 | 16 | 151 | 6.4 | 16.1 | 0.18 | 0.28 | 0.28 | 86 | 1011.4 |
| 20260506154625 | 16 | 242 | 8.0 | 16.1 | 0.18 | 0.28 | 0.28 | 86 | 1011.3 |
| 20260506154435 | 16 | 213 | 6.4 | 16.1 | 0.18 | 0.28 | 0.28 | 86 | 1011.4 |
| 20260506154322 | 16 | 200 | 6.4 | 16.1 | 0.18 | 0.28 | 0.28 | 86 | 1011.4 |
| 20260506154230 | 16 | 202 | 4.8 | 16.1 | 0.18 | 0.28 | 0.28 | 86 | 1011.4 |
| 20260506154143 | 16 | 149 | 4.8 | 16.1 | 0.18 | 0.28 | 0.28 | 86 | 1011.5 |
| 20260506154045 | 16 | 184 | 6.4 | 16.1 | 0.15 | 0.23 | 0.23 | 86 | 1011.5 |
| 20260506153936 | 16 | 262 | 8.0 | 16.1 | 0.18 | 0.23 | 0.23 | 86 | 1011.5 |
| 20260506153831 | 16 | 132 | 6.4 | 14.5 | 0.18 | 0.23 | 0.23 | 85 | 1011.5 |
| 20260506153727 | 16 | 267 | 6.4 | 14.5 | 0.18 | 0.23 | 0.23 | 85 | 1011.6 |
| 20260506153623 | 16 | 142 | 8.0 | 14.5 | 0.15 | 0.23 | 0.23 | 85 | 1011.7 |
| 20260506153548 | 16 | 163 | 6.4 | 14.5 | 0.15 | 0.23 | 0.23 | 85 | 1011.7 |
| 20260506153440 | 17 | 183 | 3.2 | 14.5 | 0.15 | 0.23 | 0.23 | 86 | 1011.8 |
| 20260506153332 | 17 | 174 | 4.8 | 14.5 | 0.15 | 0.23 | 0.23 | 85 | 1011.7 |
| 20260506153210 | 17 | 176 | 4.8 | 14.5 | 0.15 | 0.23 | 0.23 | 85 | 1011.7 |
| 20260506153203 | 17 | 99 | 3.2 | 12.9 | 0.15 | 0.23 | 0.23 | 85 | 1011.7 |
| 20260506153112 | 17 | 174 | 3.2 | 12.9 | 0.15 | 0.23 | 0.23 | 85 | 1011.7 |
| 20260506152944 | 17 | 163 | 3.2 | 12.9 | 0.10 | 0.20 | 0.20 | 85 | 1011.8 |
| 20260506152834 | 17 | 209 | 6.4 | 12.9 | 0.10 | 0.20 | 0.20 | 85 | 1011.8 |
| 20260506152721 | 17 | 225 | 8.0 | 12.9 | 0.10 | 0.20 | 0.20 | 85 | 1011.9 |
| 20260506152644 | 17 | 235 | 6.4 | 14.5 | 0.10 | 0.20 | 0.20 | 85 | 1011.8 |
| 20260506152530 | 17 | 195 | 4.8 | 14.5 | 0.10 | 0.20 | 0.20 | 85 | 1011.9 |
| 20260506152448 | 17 | 148 | 3.2 | 14.5 | 0.10 | 0.20 | 0.20 | 85 | 1011.9 |
| 20260506152342 | 17 | 141 | 3.2 | 14.5 | 0.10 | 0.20 | 0.20 | 85 | 1011.8 |
| 20260506152237 | 17 | 207 | 3.2 | 14.5 | 0.10 | 0.20 | 0.20 | 84 | 1011.9 |
| 20260506152136 | 17 | 152 | 3.2 | 14.5 | 0.10 | 0.20 | 0.20 | 84 | 1011.9 |
| 20260506152041 | 17 | 229 | 4.8 | 14.5 | 0.10 | 0.18 | 0.18 | 83 | 1012.0 |
| 20260506151945 | 17 | 181 | 6.4 | 14.5 | 0.10 | 0.18 | 0.18 | 83 | 1012.0 |
| 20260506151822 | 17 | 236 | 4.8 | 16.1 | 0.10 | 0.15 | 0.15 | 83 | 1012.0 |
| 20260506151747 | 17 | 203 | 4.8 | 12.9 | 0.08 | 0.10 | 0.10 | 82 | 1012.0 |
| 20260506151701 | 17 | 172 | 4.8 | 14.5 | 0.08 | 0.10 | 0.10 | 83 | 1012.0 |
| 20260506151623 | 17 | 186 | 6.4 | 14.5 | 0.08 | 0.10 | 0.10 | 82 | 1012.0 |
| 20260506151439 | 17 | 211 | 4.8 | 16.1 | 0.08 | 0.10 | 0.10 | 83 | 1011.9 |
| 20260506151328 | 17 | 266 | 4.8 | 16.1 | 0.08 | 0.10 | 0.10 | 83 | 1011.9 |
| 20260506151239 | 17 | 132 | 4.8 | 16.1 | 0.08 | 0.10 | 0.10 | 82 | 1011.8 |
| 20260506151144 | 17 | 119 | 6.4 | 16.1 | 0.08 | 0.10 | 0.10 | 83 | 1011.9 |
| 20260506151035 | 17 | 173 | 6.4 | 16.1 | 0.08 | 0.10 | 0.10 | 82 | 1011.9 |
| 20260506150936 | 17 | 207 | 8.0 | 16.1 | 0.08 | 0.10 | 0.10 | 82 | 1011.8 |
| 20260506150842 | 17 | 122 | 8.0 | 16.1 | 0.05 | 0.10 | 0.10 | 83 | 1011.8 |
| 20260506150742 | 17 | 268 | 8.0 | 16.1 | 0.08 | 0.10 | 0.10 | 82 | 1011.9 |
| 20260506150635 | 17 | 219 | 4.8 | 16.1 | 0.08 | 0.10 | 0.10 | 83 | 1011.8 |
| 20260506150519 | 17 | 188 | 3.2 | 11.3 | 0.08 | 0.10 | 0.10 | 83 | 1011.8 |
| 20260506150429 | 17 | 219 | 3.2 | 11.3 | 0.08 | 0.10 | 0.10 | 83 | 1011.8 |
| 20260506150333 | 17 | 220 | 4.8 | 11.3 | 0.08 | 0.10 | 0.10 | 82 | 1011.9 |
| 20260506150245 | 17 | 102 | 4.8 | 11.3 | 0.08 | 0.10 | 0.10 | 83 | 1011.9 |
| 20260506150202 | 17 | 228 | 3.2 | 14.5 | 0.08 | 0.10 | 0.10 | 83 | 1012.0 |
| 20260506150130 | 17 | 219 | 3.2 | 14.5 | 0.08 | 0.10 | 0.10 | 84 | 1012.0 |
| 20260506145922 | 17 | 161 | 3.2 | 14.5 | 0.08 | 0.10 | 0.10 | 83 | 1011.9 |
| 20260506145845 | 17 | 202 | 3.2 | 14.5 | 0.08 | 0.10 | 0.10 | 83 | 1011.9 |
| 20260506145730 | 17 | 194 | 1.6 | 14.5 | 0.08 | 0.10 | 0.10 | 83 | 1011.9 |
| 20260506145642 | 17 | 165 | 1.6 | 14.5 | 0.08 | 0.10 | 0.10 | 83 | 1012.0 |
| 20260506145530 | 17 | 173 | 3.2 | 14.5 | 0.10 | 0.10 | 0.10 | 84 | 1011.9 |
| 20260506145441 | 17 | 203 | 4.8 | 14.5 | 0.10 | 0.10 | 0.10 | 83 | 1012.0 |
| 20260506145340 | 17 | 246 | 4.8 | 11.3 | 0.10 | 0.10 | 0.10 | 83 | 1012.0 |
| 20260506145224 | 17 | 200 | 4.8 | 9.7 | 0.10 | 0.10 | 0.10 | 83 | 1012.0 |
| 20260506145125 | 17 | 196 | 1.6 | 8.0 | 0.10 | 0.10 | 0.10 | 83 | 1012.0 |
| 20260506145045 | 17 | 227 | 1.6 | 8.0 | 0.10 | 0.10 | 0.10 | 85 | 1012.0 |
| 20260506144939 | 17 | 228 | 3.2 | 8.0 | 0.10 | 0.10 | 0.10 | 84 | 1012.0 |
| 20260506144830 | 17 | 234 | 3.2 | 8.0 | 0.10 | 0.10 | 0.10 | 84 | 1012.0 |
| 20260506144739 | 17 | 167 | 3.2 | 8.0 | 0.10 | 0.10 | 0.10 | 84 | 1012.0 |
| 20260506144654 | 17 | 186 | 3.2 | 8.0 | 0.10 | 0.10 | 0.10 | 84 | 1012.0 |
| 20260506144618 | 17 | 171 | 4.8 | 8.0 | 0.10 | 0.10 | 0.10 | 84 | 1012.1 |
| 20260506144433 | 17 | 183 | 3.2 | 8.0 | 0.10 | 0.10 | 0.10 | 85 | 1012.0 |
| 20260506144317 | 17 | 153 | 1.6 | 8.0 | 0.10 | 0.10 | 0.10 | 84 | 1012.1 |
| 20260506144226 | 17 | 153 | 1.6 | 8.0 | 0.10 | 0.10 | 0.10 | 84 | 1012.1 |
| 20260506144127 | 17 | 175 | 1.6 | 4.8 | 0.10 | 0.10 | 0.10 | 84 | 1012.1 |
| 20260506144026 | 17 | 233 | 1.6 | 4.8 | 0.08 | 0.08 | 0.08 | 84 | 1012.0 |
| 20260506143941 | 17 | 171 | 0.0 | 4.8 | 0.08 | 0.08 | 0.08 | 83 | 1012.1 |
| 20260506143840 | 17 | 184 | 1.6 | 4.8 | 0.08 | 0.08 | 0.08 | 83 | 1012.1 |
| 20260506143725 | 17 | 185 | 1.6 | 8.0 | 0.08 | 0.08 | 0.08 | 83 | 1012.1 |
| 20260506143627 | 17 | 184 | 1.6 | 8.0 | 0.08 | 0.08 | 0.08 | 83 | 1012.0 |
| 20260506143531 | 17 | 158 | 1.6 | 8.0 | 0.08 | 0.08 | 0.08 | 83 | 1012.1 |
| 20260506143442 | 17 | 165 | 1.6 | 8.0 | 0.08 | 0.08 | 0.08 | 83 | 1012.0 |
| 20260506143342 | 17 | 188 | 1.6 | 8.0 | 0.08 | 0.08 | 0.08 | 83 | 1012.0 |
| 20260506143220 | 17 | 188 | 1.6 | 8.0 | 0.08 | 0.08 | 0.08 | 83 | 1012.0 |
| 20260506143154 | 17 | 184 | 1.6 | 8.0 | 0.08 | 0.08 | 0.08 | 83 | 1011.9 |
| 20260506143106 | 17 | 174 | 1.6 | 8.0 | 0.08 | 0.08 | 0.08 | 84 | 1012.0 |
| 20260506142945 | 17 | 173 | 1.6 | 8.0 | 0.08 | 0.08 | 0.08 | 84 | 1011.9 |
| 20260506142828 | 17 | 156 | 1.6 | 8.0 | 0.08 | 0.08 | 0.08 | 84 | 1011.9 |
| 20260506142728 | 17 | 169 | 1.6 | 4.8 | 0.08 | 0.08 | 0.08 | 83 | 1012.0 |
| 20260506142639 | 17 | 178 | 1.6 | 9.7 | 0.08 | 0.08 | 0.08 | 83 | 1012.0 |
| 20260506142515 | 17 | 184 | 1.6 | 9.7 | 0.08 | 0.08 | 0.08 | 83 | 1012.0 |
| 20260506142513 | 17 | 182 | 1.6 | 9.7 | 0.08 | 0.08 | 0.08 | 83 | 1012.0 |
| 20260506142345 | 17 | 157 | 0.0 | 9.7 | 0.08 | 0.08 | 0.08 | 84 | 1012.0 |
| 20260506142235 | 17 | 202 | 0.0 | 9.7 | 0.08 | 0.08 | 0.08 | 82 | 1012.0 |
| 20260506142127 | 17 | 202 | 1.6 | 9.7 | 0.05 | 0.05 | 0.05 | 82 | 1011.9 |
| 20260506142024 | 17 | 202 | 1.6 | 9.7 | 0.05 | 0.05 | 0.05 | 82 | 1012.0 |
| 20260506141930 | 17 | 202 | 3.2 | 9.7 | 0.05 | 0.05 | 0.05 | 81 | 1011.9 |
| 20260506141827 | 17 | 190 | 3.2 | 8.0 | 0.05 | 0.05 | 0.05 | 82 | 1012.0 |
| 20260506141718 | 17 | 228 | 3.2 | 8.0 | 0.05 | 0.05 | 0.05 | 81 | 1011.9 |
| 20260506141637 | 17 | 214 | 1.6 | 4.8 | 0.05 | 0.05 | 0.05 | 82 | 1012.0 |
| 20260506141424 | 17 | 201 | 1.6 | 4.8 | 0.05 | 0.05 | 0.05 | 81 | 1012.0 |
| 20260506141341 | 17 | 198 | 1.6 | 4.8 | 0.05 | 0.05 | 0.05 | 83 | 1011.9 |
| 20260506141229 | 17 | 146 | 1.6 | 4.8 | 0.05 | 0.05 | 0.05 | 81 | 1011.9 |
| 20260506141126 | 17 | 180 | 1.6 | 4.8 | 0.05 | 0.05 | 0.05 | 81 | 1011.9 |
| 20260506141045 | 17 | 188 | 1.6 | 6.4 | 0.05 | 0.05 | 0.05 | 81 | 1011.9 |
| 20260506140943 | 17 | 192 | 0.0 | 8.0 | 0.05 | 0.05 | 0.05 | 83 | 1011.9 |
| 20260506140819 | 17 | 206 | 0.0 | 8.0 | 0.03 | 0.03 | 0.03 | 83 | 1011.9 |
| 20260506140723 | 17 | 206 | 0.0 | 9.7 | 0.03 | 0.03 | 0.03 | 82 | 1012.0 |
| 20260506140631 | 17 | 206 | 0.0 | 9.7 | 0.03 | 0.03 | 0.03 | 81 | 1012.0 |
| 20260506140551 | 17 | 206 | 1.6 | 9.7 | 0.03 | 0.03 | 0.03 | 80 | 1012.1 |
| 20260506140424 | 17 | 202 | 1.6 | 9.7 | 0.03 | 0.03 | 0.03 | 80 | 1012.1 |
| 20260506140332 | 17 | 193 | 1.6 | 9.7 | 0.03 | 0.03 | 0.03 | 80 | 1012.1 |
| 20260506140227 | 17 | 205 | 3.2 | 9.7 | 0.03 | 0.03 | 0.03 | 79 | 1012.2 |
| 20260506140213 | 17 | 235 | 3.2 | 9.7 | 0.03 | 0.03 | 0.03 | 79 | 1012.1 |
| 20260506140210 | 17 | 219 | 3.2 | 9.7 | 0.03 | 0.03 | 0.03 | 80 | 1012.1 |
| 20260506135926 | 17 | 238 | 3.2 | 9.7 | 0.03 | 0.03 | 0.03 | 78 | 1012.1 |
| 20260506135844 | 17 | 250 | 3.2 | 11.3 | 0.03 | 0.03 | 0.03 | 78 | 1012.1 |
| 20260506135729 | 17 | 261 | 3.2 | 11.3 | 0.03 | 0.03 | 0.03 | 77 | 1012.0 |
| 20260506135626 | 17 | 246 | 3.2 | 11.3 | 0.00 | 0.00 | 0.00 | 76 | 1012.0 |
| 20260506135546 | 17 | 194 | 4.8 | 11.3 | 0.00 | 0.00 | 0.00 | 76 | 1012.0 |
| 20260506135426 | 17 | 197 | 4.8 | 11.3 | 0.00 | 0.00 | 0.00 | 76 | 1012.0 |
| 20260506135318 | 17 | 193 | 3.2 | 12.9 | 0.00 | 0.00 | 0.00 | 76 | 1012.1 |
| 20260506135229 | 17 | 228 | 1.6 | 12.9 | 0.00 | 0.00 | 0.00 | 76 | 1012.1 |
| 20260506135144 | 17 | 225 | 3.2 | 12.9 | 0.00 | 0.00 | 0.00 | 76 | 1012.1 |
| 20260506135038 | 17 | 225 | 4.8 | 12.9 | 0.00 | 0.00 | 0.00 | 74 | 1012.1 |
| 20260506134937 | 18 | 199 | 4.8 | 12.9 | 0.00 | 0.00 | 0.00 | 74 | 1012.0 |
| 20260506134836 | 18 | 168 | 3.2 | 12.9 | 0.00 | 0.00 | 0.00 | 74 | 1012.0 |
| 20260506134739 | 18 | 183 | 3.2 | 12.9 | 0.00 | 0.00 | 0.00 | 74 | 1011.9 |
| 20260506134645 | 18 | 267 | 4.8 | 12.9 | 0.00 | 0.00 | 0.00 | 74 | 1011.9 |
| 20260506134642 | 18 | 134 | 3.2 | 14.5 | 0.00 | 0.00 | 0.00 | 73 | 1011.9 |
| 20260506134437 | 18 | 152 | 3.2 | 11.3 | 0.00 | 0.00 | 0.00 | 74 | 1011.9 |
| 20260506134320 | 18 | 160 | 6.4 | 11.3 | 0.00 | 0.00 | 0.00 | 73 | 1011.9 |
| 20260506134242 | 18 | 219 | 4.8 | 12.9 | 0.00 | 0.00 | 0.00 | 72 | 1011.9 |
| 20260506134136 | 18 | 190 | 3.2 | 14.5 | 0.00 | 0.00 | 0.00 | 73 | 1011.9 |
| 20260506134026 | 18 | 126 | 3.2 | 14.5 | 0.00 | 0.00 | 0.00 | 72 | 1011.9 |
| 20260506133933 | 18 | 175 | 1.6 | 16.1 | 0.00 | 0.00 | 0.00 | 72 | 1011.9 |
| 20260506133819 | 18 | 157 | 1.6 | 17.7 | 0.00 | 0.00 | 0.00 | 72 | 1011.9 |
| 20260506133740 | 18 | 150 | 3.2 | 17.7 | 0.00 | 0.00 | 0.00 | 71 | 1012.0 |
| 20260506133626 | 18 | 219 | 3.2 | 17.7 | 0.00 | 0.00 | 0.00 | 71 | 1012.1 |
| 20260506133530 | 18 | 200 | 4.8 | 17.7 | 0.00 | 0.00 | 0.00 | 71 | 1012.1 |
| 20260506133428 | 18 | 186 | 6.4 | 17.7 | 0.00 | 0.00 | 0.00 | 69 | 1012.1 |
| 20260506133325 | 18 | 177 | 8.0 | 17.7 | 0.00 | 0.00 | 0.00 | 70 | 1012.0 |
| 20260506133230 | 18 | 223 | 8.0 | 17.7 | 0.00 | 0.00 | 0.00 | 70 | 1011.9 |
| 20260506133200 | 18 | 206 | 8.0 | 17.7 | 0.00 | 0.00 | 0.00 | 70 | 1011.7 |
| 20260506133116 | 18 | 205 | 6.4 | 17.7 | 0.00 | 0.00 | 0.00 | 69 | 1011.9 |
| 20260506132928 | 18 | 209 | 6.4 | 17.7 | 0.00 | 0.00 | 0.00 | 69 | 1012.0 |
| 20260506132824 | 18 | 244 | 6.4 | 17.7 | 0.00 | 0.00 | 0.00 | 69 | 1012.0 |
| 20260506132741 | 18 | 143 | 4.8 | 17.7 | 0.00 | 0.00 | 0.00 | 69 | 1011.9 |
| 20260506132637 | 18 | 138 | 4.8 | 17.7 | 0.00 | 0.00 | 0.00 | 69 | 1011.9 |
| 20260506132544 | 18 | 230 | 4.8 | 17.7 | 0.00 | 0.00 | 0.00 | 69 | 1011.9 |
| 20260506132425 | 18 | 137 | 8.0 | 17.7 | 0.00 | 0.00 | 0.00 | 68 | 1011.9 |
| 20260506132349 | 18 | 153 | 6.4 | 17.7 | 0.00 | 0.00 | 0.00 | 68 | 1011.8 |
| 20260506132221 | 18 | 263 | 6.4 | 16.1 | 0.00 | 0.00 | 0.00 | 68 | 1011.9 |
| 20260506132141 | 18 | 179 | 4.8 | 17.7 | 0.00 | 0.00 | 0.00 | 68 | 1011.9 |
| 20260506132021 | 18 | 90 | 4.8 | 16.1 | 0.00 | 0.00 | 0.00 | 68 | 1011.9 |
| 20260506131920 | 18 | 219 | 8.0 | 16.1 | 0.00 | 0.00 | 0.00 | 68 | 1011.9 |
| 20260506131849 | 18 | 199 | 6.4 | 16.1 | 0.00 | 0.00 | 0.00 | 67 | 1011.8 |
| 20260506131747 | 18 | 227 | 6.4 | 14.5 | 0.00 | 0.00 | 0.00 | 67 | 1011.9 |
| 20260506131705 | 18 | 161 | 6.4 | 14.5 | 0.00 | 0.00 | 0.00 | 67 | 1011.9 |
| 20260506131703 | 18 | 173 | 6.4 | 14.5 | 0.00 | 0.00 | 0.00 | 67 | 1011.8 |
| 20260506131430 | 18 | 194 | 6.4 | 12.9 | 0.00 | 0.00 | 0.00 | 67 | 1011.8 |
| 20260506131322 | 18 | 213 | 4.8 | 14.5 | 0.00 | 0.00 | 0.00 | 68 | 1011.8 |
| 20260506131226 | 18 | 219 | 6.4 | 14.5 | 0.00 | 0.00 | 0.00 | 67 | 1011.8 |
| 20260506131120 | 19 | 230 | 6.4 | 14.5 | 0.00 | 0.00 | 0.00 | 67 | 1011.7 |
| 20260506131022 | 19 | 193 | 4.8 | 14.5 | 0.00 | 0.00 | 0.00 | 67 | 1011.7 |
| 20260506130924 | 19 | 287 | 4.8 | 11.3 | 0.00 | 0.00 | 0.00 | 67 | 1011.7 |
| 20260506130819 | 19 | 161 | 4.8 | 12.9 | 0.00 | 0.00 | 0.00 | 67 | 1011.6 |
| 20260506130747 | 19 | 180 | 3.2 | 17.7 | 0.00 | 0.00 | 0.00 | 68 | 1011.7 |
| 20260506130625 | 19 | 240 | 3.2 | 17.7 | 0.00 | 0.00 | 0.00 | 68 | 1011.6 |
| 20260506130515 | 19 | 129 | 4.8 | 17.7 | 0.00 | 0.00 | 0.00 | 68 | 1011.6 |
| 20260506130443 | 18 | 160 | 3.2 | 17.7 | 0.00 | 0.00 | 0.00 | 68 | 1011.6 |
| 20260506130322 | 18 | 210 | 3.2 | 17.7 | 0.00 | 0.00 | 0.00 | 67 | 1011.6 |
| 20260506130236 | 18 | 190 | 4.8 | 17.7 | 0.00 | 0.00 | 0.00 | 68 | 1011.6 |
| 20260506130139 | 18 | 243 | 6.4 | 17.7 | 0.00 | 0.00 | 0.00 | 67 | 1011.6 |
| 20260506130134 | 19 | 99 | 6.4 | 17.7 | 0.00 | 0.00 | 0.00 | 67 | 1011.6 |
| 20260506125950 | 19 | 169 | 6.4 | 17.7 | 0.00 | 0.00 | 0.00 | 67 | 1011.6 |
| 20260506125837 | 19 | 242 | 4.8 | 16.1 | 0.00 | 0.00 | 0.00 | 67 | 1011.6 |
| 20260506125722 | 19 | 181 | 3.2 | 16.1 | 0.00 | 0.00 | 0.00 | 68 | 1011.6 |
| 20260506125634 | 19 | 165 | 4.8 | 16.1 | 0.00 | 0.00 | 0.00 | 67 | 1011.6 |
| 20260506125519 | 19 | 183 | 6.4 | 16.1 | 0.00 | 0.00 | 0.00 | 67 | 1011.5 |
| 20260506125440 | 18 | 170 | 6.4 | 16.1 | 0.00 | 0.00 | 0.00 | 67 | 1011.5 |
| 20260506125329 | 18 | 128 | 6.4 | 16.1 | 0.00 | 0.00 | 0.00 | 67 | 1011.4 |
| 20260506125222 | 18 | 201 | 6.4 | 16.1 | 0.00 | 0.00 | 0.00 | 67 | 1011.5 |
| 20260506125138 | 18 | 248 | 6.4 | 16.1 | 0.00 | 0.00 | 0.00 | 67 | 1011.5 |
| 20260506125023 | 18 | 163 | 6.4 | 16.1 | 0.00 | 0.00 | 0.00 | 67 | 1011.5 |
| 20260506124932 | 18 | 316 | 6.4 | 16.1 | 0.00 | 0.00 | 0.00 | 68 | 1011.5 |
| 20260506124827 | 18 | 202 | 6.4 | 16.1 | 0.00 | 0.00 | 0.00 | 67 | 1011.5 |
| 20260506124734 | 18 | 155 | 4.8 | 16.1 | 0.00 | 0.00 | 0.00 | 67 | 1011.5 |
| 20260506124654 | 18 | 234 | 6.4 | 16.1 | 0.00 | 0.00 | 0.00 | 67 | 1011.5 |
| 20260506124609 | 18 | 136 | 6.4 | 16.1 | 0.00 | 0.00 | 0.00 | 67 | 1011.5 |
| 20260506124446 | 19 | 221 | 4.8 | 16.1 | 0.00 | 0.00 | 0.00 | 67 | 1011.5 |
| 20260506124320 | 19 | 157 | 4.8 | 16.1 | 0.00 | 0.00 | 0.00 | 67 | 1011.6 |
| 20260506124235 | 19 | 150 | 6.4 | 17.7 | 0.00 | 0.00 | 0.00 | 67 | 1011.5 |
| 20260506124120 | 19 | 208 | 4.8 | 16.1 | 0.00 | 0.00 | 0.00 | 67 | 1011.5 |
| 20260506124022 | 18 | 130 | 4.8 | 16.1 | 0.00 | 0.00 | 0.00 | 68 | 1011.5 |
| 20260506123924 | 18 | 208 | 4.8 | 16.1 | 0.00 | 0.00 | 0.00 | 67 | 1011.5 |
| 20260506123831 | 18 | 204 | 4.8 | 16.1 | 0.00 | 0.00 | 0.00 | 68 | 1011.5 |
| 20260506123721 | 18 | 225 | 4.8 | 16.1 | 0.00 | 0.00 | 0.00 | 67 | 1011.4 |
| 20260506123619 | 18 | 205 | 6.4 | 16.1 | 0.00 | 0.00 | 0.00 | 68 | 1011.5 |
| 20260506123537 | 18 | 236 | 9.7 | 16.1 | 0.00 | 0.00 | 0.00 | 67 | 1011.4 |
| 20260506123426 | 18 | 133 | 8.0 | 16.1 | 0.00 | 0.00 | 0.00 | 68 | 1011.3 |
| 20260506123326 | 18 | 249 | 6.4 | 16.1 | 0.00 | 0.00 | 0.00 | 68 | 1011.4 |
| 20260506123227 | 18 | 169 | 6.4 | 16.1 | 0.00 | 0.00 | 0.00 | 67 | 1011.5 |
| 20260506123201 | 18 | 208 | 6.4 | 16.1 | 0.00 | 0.00 | 0.00 | 68 | 1011.4 |
| 20260506123119 | 18 | 153 | 4.8 | 16.1 | 0.00 | 0.00 | 0.00 | 68 | 1011.5 |
| 20260506122926 | 18 | 186 | 3.2 | 16.1 | 0.00 | 0.00 | 0.00 | 68 | 1011.4 |
| 20260506122845 | 18 | 121 | 4.8 | 16.1 | 0.00 | 0.00 | 0.00 | 68 | 1011.5 |
| 20260506122744 | 18 | 176 | 3.2 | 16.1 | 0.00 | 0.00 | 0.00 | 68 | 1011.5 |
| 20260506122627 | 18 | 249 | 3.2 | 16.1 | 0.00 | 0.00 | 0.00 | 68 | 1011.4 |
| 20260506122526 | 18 | 169 | 3.2 | 16.1 | 0.00 | 0.00 | 0.00 | 68 | 1011.5 |
| 20260506122445 | 18 | 169 | 4.8 | 16.1 | 0.00 | 0.00 | 0.00 | 68 | 1011.5 |
| 20260506122342 | 18 | 252 | 4.8 | 17.7 | 0.00 | 0.00 | 0.00 | 68 | 1011.5 |
| 20260506122238 | 18 | 206 | 3.2 | 17.7 | 0.00 | 0.00 | 0.00 | 68 | 1011.6 |
| 20260506122134 | 18 | 224 | 3.2 | 17.7 | 0.00 | 0.00 | 0.00 | 68 | 1011.6 |
| 20260506122045 | 18 | 155 | 4.8 | 17.7 | 0.00 | 0.00 | 0.00 | 68 | 1011.6 |
| 20260506121941 | 18 | 157 | 4.8 | 17.7 | 0.00 | 0.00 | 0.00 | 68 | 1011.7 |
| 20260506121840 | 18 | 175 | 4.8 | 17.7 | 0.00 | 0.00 | 0.00 | 68 | 1011.7 |
| 20260506121720 | 18 | 188 | 6.4 | 17.7 | 0.00 | 0.00 | 0.00 | 68 | 1011.7 |
| 20260506121654 | 18 | 165 | 8.0 | 17.7 | 0.00 | 0.00 | 0.00 | 68 | 1011.8 |
| 20260506121621 | 18 | 258 | 8.0 | 17.7 | 0.00 | 0.00 | 0.00 | 68 | 1011.8 |
| 20260506121448 | 18 | 148 | 6.4 | 17.7 | 0.00 | 0.00 | 0.00 | 68 | 1011.8 |
| 20260506121322 | 18 | 227 | 4.8 | 17.7 | 0.00 | 0.00 | 0.00 | 68 | 1011.8 |
| 20260506121239 | 18 | 187 | 6.4 | 17.7 | 0.00 | 0.00 | 0.00 | 68 | 1011.8 |
| 20260506121128 | 18 | 132 | 6.4 | 17.7 | 0.00 | 0.00 | 0.00 | 68 | 1011.8 |
| 20260506121045 | 18 | 231 | 6.4 | 17.7 | 0.00 | 0.00 | 0.00 | 67 | 1011.8 |
| 20260506120946 | 18 | 215 | 4.8 | 17.7 | 0.00 | 0.00 | 0.00 | 68 | 1011.8 |
| 20260506120818 | 18 | 189 | 4.8 | 16.1 | 0.00 | 0.00 | 0.00 | 68 | 1011.8 |
| 20260506120741 | 18 | 155 | 6.4 | 16.1 | 0.00 | 0.00 | 0.00 | 68 | 1011.7 |
| 20260506120633 | 18 | 218 | 6.4 | 16.1 | 0.00 | 0.00 | 0.00 | 68 | 1011.7 |
| 20260506120541 | 18 | 130 | 4.8 | 16.1 | 0.00 | 0.00 | 0.00 | 69 | 1011.8 |
| 20260506120450 | 18 | 213 | 6.4 | 16.1 | 0.00 | 0.00 | 0.00 | 68 | 1011.8 |
| 20260506120328 | 18 | 179 | 6.4 | 16.1 | 0.00 | 0.00 | 0.00 | 68 | 1011.8 |
| 20260506120225 | 18 | 170 | 3.2 | 16.1 | 0.00 | 0.00 | 0.00 | 68 | 1011.9 |
| 20260506120157 | 18 | 225 | 4.8 | 16.1 | 0.00 | 0.00 | 0.00 | 68 | 1011.9 |
| 20260506115924 | 18 | 182 | 3.2 | 17.7 | 0.00 | 0.00 | 0.00 | 68 | 1012.0 |
| 20260506115847 | 18 | 179 | 3.2 | 17.7 | 0.00 | 0.00 | 0.00 | 68 | 1012.0 |
| 20260506115722 | 18 | 270 | 4.8 | 17.7 | 0.00 | 0.00 | 0.00 | 68 | 1011.9 |
| 20260506115633 | 18 | 216 | 3.2 | 17.7 | 0.00 | 0.00 | 0.00 | 68 | 1011.9 |
| 20260506115537 | 18 | 200 | 4.8 | 17.7 | 0.00 | 0.00 | 0.00 | 68 | 1012.0 |
| 20260506115443 | 18 | 202 | 4.8 | 17.7 | 0.00 | 0.00 | 0.00 | 69 | 1011.9 |
| 20260506115346 | 18 | 160 | 6.4 | 16.1 | 0.00 | 0.00 | 0.00 | 68 | 1011.9 |
| 20260506115234 | 18 | 185 | 4.8 | 16.1 | 0.00 | 0.00 | 0.00 | 68 | 1012.0 |
| 20260506115124 | 18 | 111 | 4.8 | 16.1 | 0.00 | 0.00 | 0.00 | 68 | 1011.9 |
| 20260506115040 | 18 | 171 | 4.8 | 16.1 | 0.00 | 0.00 | 0.00 | 69 | 1012.0 |
| 20260506114932 | 18 | 219 | 3.2 | 16.1 | 0.00 | 0.00 | 0.00 | 69 | 1011.9 |
| 20260506114849 | 18 | 258 | 3.2 | 16.1 | 0.00 | 0.00 | 0.00 | 69 | 1012.0 |
| 20260506114725 | 18 | 148 | 4.8 | 16.1 | 0.00 | 0.00 | 0.00 | 69 | 1011.9 |
| 20260506114647 | 18 | 235 | 6.4 | 16.1 | 0.00 | 0.00 | 0.00 | 69 | 1012.0 |
| 20260506114434 | 18 | 214 | 4.8 | 14.5 | 0.00 | 0.00 | 0.00 | 69 | 1011.9 |
| 20260506114341 | 18 | 190 | 4.8 | 12.9 | 0.00 | 0.00 | 0.00 | 69 | 1011.9 |
| 20260506114222 | 18 | 225 | 3.2 | 12.9 | 0.00 | 0.00 | 0.00 | 69 | 1011.8 |
| 20260506114135 | 18 | 194 | 3.2 | 11.3 | 0.00 | 0.00 | 0.00 | 69 | 1011.9 |
| 20260506114049 | 18 | 153 | 4.8 | 17.7 | 0.00 | 0.00 | 0.00 | 69 | 1011.8 |
| 20260506113921 | 18 | 177 | 4.8 | 17.7 | 0.00 | 0.00 | 0.00 | 69 | 1011.8 |
| 20260506113847 | 18 | 179 | 4.8 | 17.7 | 0.00 | 0.00 | 0.00 | 69 | 1011.8 |
| 20260506113744 | 18 | 194 | 4.8 | 17.7 | 0.00 | 0.00 | 0.00 | 69 | 1011.8 |
| 20260506113626 | 18 | 166 | 3.2 | 17.7 | 0.00 | 0.00 | 0.00 | 69 | 1011.8 |
| 20260506113542 | 18 | 169 | 3.2 | 17.7 | 0.00 | 0.00 | 0.00 | 69 | 1011.8 |
| 20260506113430 | 18 | 245 | 4.8 | 17.7 | 0.00 | 0.00 | 0.00 | 69 | 1011.8 |
| 20260506113330 | 18 | 150 | 6.4 | 17.7 | 0.00 | 0.00 | 0.00 | 69 | 1011.8 |
| 20260506113241 | 18 | 144 | 8.0 | 17.7 | 0.00 | 0.00 | 0.00 | 69 | 1011.8 |
| 20260506113149 | 18 | 211 | 9.7 | 19.3 | 0.00 | 0.00 | 0.00 | 69 | 1011.7 |
| 20260506112946 | 18 | 142 | 4.8 | 16.1 | 0.00 | 0.00 | 0.00 | 69 | 1011.7 |
| 20260506112846 | 18 | 159 | 4.8 | 16.1 | 0.00 | 0.00 | 0.00 | 69 | 1011.7 |
| 20260506112743 | 18 | 196 | 4.8 | 16.1 | 0.00 | 0.00 | 0.00 | 69 | 1011.8 |
| 20260506112642 | 17 | 206 | 6.4 | 16.1 | 0.00 | 0.00 | 0.00 | 70 | 1011.7 |
| 20260506112545 | 17 | 184 | 4.8 | 16.1 | 0.00 | 0.00 | 0.00 | 70 | 1011.8 |
| 20260506112432 | 17 | 181 | 4.8 | 12.9 | 0.00 | 0.00 | 0.00 | 70 | 1011.8 |
| 20260506112333 | 17 | 209 | 4.8 | 12.9 | 0.00 | 0.00 | 0.00 | 70 | 1011.8 |
| 20260506112228 | 17 | 207 | 6.4 | 12.9 | 0.00 | 0.00 | 0.00 | 70 | 1011.9 |
| 20260506112132 | 17 | 161 | 6.4 | 12.9 | 0.00 | 0.00 | 0.00 | 70 | 1011.8 |
| 20260506112044 | 17 | 146 | 4.8 | 12.9 | 0.00 | 0.00 | 0.00 | 70 | 1011.8 |
| 20260506111934 | 17 | 167 | 4.8 | 12.9 | 0.00 | 0.00 | 0.00 | 70 | 1011.8 |
| 20260506111827 | 17 | 206 | 6.4 | 12.9 | 0.00 | 0.00 | 0.00 | 70 | 1011.8 |
| 20260506111739 | 17 | 238 | 4.8 | 16.1 | 0.00 | 0.00 | 0.00 | 69 | 1011.9 |
| 20260506111652 | 17 | 167 | 6.4 | 16.1 | 0.00 | 0.00 | 0.00 | 70 | 1011.8 |
| 20260506111419 | 17 | 196 | 6.4 | 16.1 | 0.00 | 0.00 | 0.00 | 70 | 1011.8 |
| 20260506111323 | 17 | 140 | 4.8 | 16.1 | 0.00 | 0.00 | 0.00 | 70 | 1011.8 |
| 20260506111244 | 17 | 225 | 3.2 | 16.1 | 0.00 | 0.00 | 0.00 | 69 | 1011.9 |
| 20260506111121 | 17 | 191 | 3.2 | 16.1 | 0.00 | 0.00 | 0.00 | 70 | 1011.9 |
| 20260506111023 | 18 | 161 | 4.8 | 16.1 | 0.00 | 0.00 | 0.00 | 70 | 1011.9 |
| 20260506110924 | 17 | 148 | 4.8 | 16.1 | 0.00 | 0.00 | 0.00 | 70 | 1011.8 |
| 20260506110819 | 17 | 238 | 4.8 | 16.1 | 0.00 | 0.00 | 0.00 | 70 | 1011.8 |
| 20260506110731 | 17 | 178 | 3.2 | 11.3 | 0.00 | 0.00 | 0.00 | 70 | 1011.8 |
| 20260506110636 | 17 | 132 | 1.6 | 11.3 | 0.00 | 0.00 | 0.00 | 71 | 1011.7 |
| 20260506110532 | 17 | 228 | 4.8 | 11.3 | 0.00 | 0.00 | 0.00 | 70 | 1011.7 |
| 20260506110448 | 17 | 157 | 6.4 | 12.9 | 0.00 | 0.00 | 0.00 | 71 | 1011.7 |
| 20260506110321 | 17 | 200 | 4.8 | 12.9 | 0.00 | 0.00 | 0.00 | 71 | 1011.6 |
| 20260506110234 | 17 | 146 | 3.2 | 12.9 | 0.00 | 0.00 | 0.00 | 71 | 1011.6 |
| 20260506110214 | 17 | 105 | 3.2 | 12.9 | 0.00 | 0.00 | 0.00 | 71 | 1011.6 |
| 20260506110137 | 17 | 182 | 3.2 | 12.9 | 0.00 | 0.00 | 0.00 | 71 | 1011.6 |
| 20260506105944 | 17 | 198 | 3.2 | 12.9 | 0.00 | 0.00 | 0.00 | 71 | 1011.6 |
| 20260506105836 | 17 | 162 | 4.8 | 12.9 | 0.00 | 0.00 | 0.00 | 71 | 1011.7 |
| 20260506105736 | 17 | 158 | 6.4 | 12.9 | 0.00 | 0.00 | 0.00 | 71 | 1011.7 |
| 20260506105629 | 17 | 192 | 4.8 | 12.9 | 0.00 | 0.00 | 0.00 | 71 | 1011.6 |
| 20260506105529 | 17 | 208 | 4.8 | 12.9 | 0.00 | 0.00 | 0.00 | 71 | 1011.7 |
| 20260506105426 | 17 | 213 | 3.2 | 12.9 | 0.00 | 0.00 | 0.00 | 71 | 1011.7 |
| 20260506105322 | 17 | 146 | 4.8 | 12.9 | 0.00 | 0.00 | 0.00 | 71 | 1011.6 |
| 20260506105243 | 17 | 252 | 4.8 | 12.9 | 0.00 | 0.00 | 0.00 | 72 | 1011.6 |
| 20260506105148 | 17 | 267 | 3.2 | 9.7 | 0.00 | 0.00 | 0.00 | 72 | 1011.6 |
| 20260506105047 | 17 | 196 | 4.8 | 9.7 | 0.00 | 0.00 | 0.00 | 72 | 1011.6 |
| 20260506104926 | 17 | 190 | 4.8 | 9.7 | 0.00 | 0.00 | 0.00 | 72 | 1011.6 |
| 20260506104821 | 17 | 211 | 3.2 | 9.7 | 0.00 | 0.00 | 0.00 | 72 | 1011.6 |
| 20260506104736 | 17 | 246 | 3.2 | 9.7 | 0.00 | 0.00 | 0.00 | 72 | 1011.5 |
| 20260506104649 | 17 | 157 | 3.2 | 9.7 | 0.00 | 0.00 | 0.00 | 72 | 1011.5 |
| 20260506104620 | 17 | 234 | 3.2 | 9.7 | 0.00 | 0.00 | 0.00 | 72 | 1011.5 |
| 20260506104424 | 17 | 224 | 4.8 | 9.7 | 0.00 | 0.00 | 0.00 | 72 | 1011.5 |
| 20260506104322 | 17 | 184 | 3.2 | 12.9 | 0.00 | 0.00 | 0.00 | 72 | 1011.4 |
| 20260506104244 | 17 | 204 | 1.6 | 14.5 | 0.00 | 0.00 | 0.00 | 72 | 1011.4 |
| 20260506104130 | 17 | 204 | 1.6 | 17.7 | 0.00 | 0.00 | 0.00 | 72 | 1011.4 |
| 20260506104044 | 17 | 205 | 3.2 | 17.7 | 0.00 | 0.00 | 0.00 | 72 | 1011.4 |
| 20260506103945 | 17 | 169 | 3.2 | 17.7 | 0.00 | 0.00 | 0.00 | 72 | 1011.4 |
| 20260506103845 | 17 | 121 | 3.2 | 17.7 | 0.00 | 0.00 | 0.00 | 72 | 1011.4 |
| 20260506103720 | 17 | 210 | 3.2 | 17.7 | 0.00 | 0.00 | 0.00 | 72 | 1011.5 |
| 20260506103649 | 17 | 259 | 4.8 | 17.7 | 0.00 | 0.00 | 0.00 | 72 | 1011.5 |
| 20260506103522 | 17 | 168 | 4.8 | 17.7 | 0.00 | 0.00 | 0.00 | 72 | 1011.5 |
| 20260506103440 | 17 | 224 | 6.4 | 17.7 | 0.00 | 0.00 | 0.00 | 72 | 1011.5 |
| 20260506103341 | 17 | 209 | 8.0 | 17.7 | 0.00 | 0.00 | 0.00 | 72 | 1011.5 |
| 20260506103244 | 17 | 182 | 6.4 | 17.7 | 0.00 | 0.00 | 0.00 | 72 | 1011.5 |
| 20260506103142 | 17 | 196 | 4.8 | 17.7 | 0.00 | 0.00 | 0.00 | 72 | 1011.4 |
| 20260506103137 | 17 | 98 | 6.4 | 17.7 | 0.00 | 0.00 | 0.00 | 72 | 1011.4 |
| 20260506102926 | 17 | 221 | 6.4 | 17.7 | 0.00 | 0.00 | 0.00 | 72 | 1011.5 |
| 20260506102837 | 17 | 238 | 8.0 | 17.7 | 0.00 | 0.00 | 0.00 | 72 | 1011.4 |
| 20260506102728 | 17 | 150 | 8.0 | 17.7 | 0.00 | 0.00 | 0.00 | 73 | 1011.3 |
| 20260506102624 | 17 | 199 | 4.8 | 17.7 | 0.00 | 0.00 | 0.00 | 73 | 1011.4 |
| 20260506102533 | 17 | 210 | 3.2 | 17.7 | 0.00 | 0.00 | 0.00 | 73 | 1011.4 |
| 20260506102422 | 17 | 165 | 4.8 | 17.7 | 0.00 | 0.00 | 0.00 | 73 | 1011.4 |
| 20260506102348 | 17 | 225 | 4.8 | 17.7 | 0.00 | 0.00 | 0.00 | 73 | 1011.3 |
| 20260506102230 | 17 | 242 | 3.2 | 17.7 | 0.00 | 0.00 | 0.00 | 73 | 1011.3 |
| 20260506102129 | 17 | 222 | 1.6 | 17.7 | 0.00 | 0.00 | 0.00 | 73 | 1011.3 |
| 20260506102045 | 17 | 203 | 3.2 | 17.7 | 0.00 | 0.00 | 0.00 | 73 | 1011.3 |
| 20260506101931 | 17 | 212 | 4.8 | 17.7 | 0.00 | 0.00 | 0.00 | 73 | 1011.4 |
| 20260506101821 | 17 | 213 | 4.8 | 14.5 | 0.00 | 0.00 | 0.00 | 74 | 1011.4 |
| 20260506101724 | 17 | 203 | 6.4 | 14.5 | 0.00 | 0.00 | 0.00 | 74 | 1011.4 |
| 20260506101654 | 17 | 205 | 6.4 | 14.5 | 0.00 | 0.00 | 0.00 | 74 | 1011.4 |
| 20260506101602 | 17 | 171 | 4.8 | 12.9 | 0.00 | 0.00 | 0.00 | 74 | 1011.4 |
| 20260506101443 | 17 | 201 | 3.2 | 12.9 | 0.00 | 0.00 | 0.00 | 74 | 1011.4 |
| 20260506101325 | 17 | 206 | 1.6 | 12.9 | 0.00 | 0.00 | 0.00 | 74 | 1011.4 |
| 20260506101220 | 17 | 252 | 3.2 | 12.9 | 0.00 | 0.00 | 0.00 | 74 | 1011.3 |
| 20260506101131 | 17 | 238 | 4.8 | 14.5 | 0.00 | 0.00 | 0.00 | 74 | 1011.4 |
| 20260506101042 | 17 | 138 | 3.2 | 14.5 | 0.00 | 0.00 | 0.00 | 74 | 1011.3 |
| 20260506100928 | 17 | 207 | 1.6 | 14.5 | 0.00 | 0.00 | 0.00 | 74 | 1011.3 |
| 20260506100832 | 17 | 153 | 3.2 | 14.5 | 0.00 | 0.00 | 0.00 | 74 | 1011.4 |
| 20260506100726 | 17 | 231 | 1.6 | 14.5 | 0.00 | 0.00 | 0.00 | 74 | 1011.4 |
| 20260506100623 | 17 | 167 | 1.6 | 14.5 | 0.00 | 0.00 | 0.00 | 74 | 1011.3 |
| 20260506100533 | 17 | 155 | 3.2 | 14.5 | 0.00 | 0.00 | 0.00 | 74 | 1011.4 |
| 20260506100437 | 17 | 155 | 4.8 | 14.5 | 0.00 | 0.00 | 0.00 | 74 | 1011.5 |
| 20260506100338 | 17 | 221 | 4.8 | 14.5 | 0.00 | 0.00 | 0.00 | 74 | 1011.4 |
| 20260506100248 | 17 | 203 | 4.8 | 14.5 | 0.00 | 0.00 | 0.00 | 74 | 1011.5 |
| 20260506100203 | 17 | 224 | 4.8 | 14.5 | 0.00 | 0.00 | 0.00 | 74 | 1011.5 |
| 20260506095934 | 17 | 186 | 4.8 | 14.5 | 0.00 | 0.00 | 0.00 | 74 | 1011.4 |
| 20260506095842 | 17 | 163 | 4.8 | 14.5 | 0.00 | 0.00 | 0.00 | 74 | 1011.5 |
| 20260506095726 | 17 | 171 | 4.8 | 14.5 | 0.00 | 0.00 | 0.00 | 74 | 1011.4 |
| 20260506095621 | 17 | 217 | 4.8 | 14.5 | 0.00 | 0.00 | 0.00 | 74 | 1011.5 |
| 20260506095537 | 17 | 221 | 4.8 | 14.5 | 0.00 | 0.00 | 0.00 | 74 | 1011.5 |
| 20260506095423 | 17 | 178 | 4.8 | 14.5 | 0.00 | 0.00 | 0.00 | 74 | 1011.5 |
| 20260506095322 | 17 | 151 | 3.2 | 9.7 | 0.00 | 0.00 | 0.00 | 74 | 1011.5 |
| 20260506095246 | 17 | 193 | 3.2 | 11.3 | 0.00 | 0.00 | 0.00 | 74 | 1011.5 |
| 20260506095144 | 17 | 196 | 4.8 | 11.3 | 0.00 | 0.00 | 0.00 | 74 | 1011.5 |
| 20260506095025 | 17 | 227 | 4.8 | 12.9 | 0.00 | 0.00 | 0.00 | 74 | 1011.5 |
| 20260506094930 | 17 | 196 | 3.2 | 12.9 | 0.00 | 0.00 | 0.00 | 74 | 1011.5 |
| 20260506094826 | 17 | 206 | 3.2 | 12.9 | 0.00 | 0.00 | 0.00 | 74 | 1011.5 |
| 20260506094734 | 17 | 209 | 4.8 | 12.9 | 0.00 | 0.00 | 0.00 | 74 | 1011.5 |
| 20260506094649 | 17 | 203 | 4.8 | 12.9 | 0.00 | 0.00 | 0.00 | 74 | 1011.5 |
| 20260506094624 | 17 | 203 | 4.8 | 14.5 | 0.00 | 0.00 | 0.00 | 74 | 1011.5 |
| 20260506094437 | 17 | 216 | 6.4 | 16.1 | 0.00 | 0.00 | 0.00 | 74 | 1011.6 |
| 20260506094323 | 17 | 146 | 6.4 | 16.1 | 0.00 | 0.00 | 0.00 | 74 | 1011.5 |
| 20260506094221 | 17 | 196 | 3.2 | 16.1 | 0.00 | 0.00 | 0.00 | 74 | 1011.6 |
| 20260506094131 | 17 | 149 | 3.2 | 16.1 | 0.00 | 0.00 | 0.00 | 74 | 1011.6 |
| 20260506094040 | 17 | 211 | 4.8 | 16.1 | 0.00 | 0.00 | 0.00 | 74 | 1011.6 |
| 20260506093933 | 17 | 223 | 4.8 | 16.1 | 0.00 | 0.00 | 0.00 | 74 | 1011.4 |
| 20260506093831 | 17 | 212 | 4.8 | 16.1 | 0.00 | 0.00 | 0.00 | 74 | 1011.5 |
| 20260506093735 | 17 | 190 | 4.8 | 16.1 | 0.00 | 0.00 | 0.00 | 74 | 1011.5 |
| 20260506093627 | 17 | 177 | 4.8 | 17.7 | 0.00 | 0.00 | 0.00 | 74 | 1011.4 |
| 20260506093542 | 17 | 210 | 4.8 | 17.7 | 0.00 | 0.00 | 0.00 | 74 | 1011.5 |
| 20260506093428 | 17 | 246 | 3.2 | 17.7 | 0.00 | 0.00 | 0.00 | 74 | 1011.5 |
| 20260506093335 | 17 | 230 | 3.2 | 17.7 | 0.00 | 0.00 | 0.00 | 74 | 1011.4 |
| 20260506093248 | 17 | 200 | 3.2 | 17.7 | 0.00 | 0.00 | 0.00 | 74 | 1011.4 |
| 20260506093131 | 17 | 192 | 3.2 | 17.7 | 0.00 | 0.00 | 0.00 | 74 | 1011.4 |
| 20260506092948 | 17 | 221 | 6.4 | 17.7 | 0.00 | 0.00 | 0.00 | 74 | 1011.3 |
| 20260506092840 | 17 | 202 | 6.4 | 17.7 | 0.00 | 0.00 | 0.00 | 74 | 1011.5 |
| 20260506092735 | 17 | 144 | 6.4 | 14.5 | 0.00 | 0.00 | 0.00 | 74 | 1011.4 |
| 20260506092623 | 17 | 174 | 4.8 | 14.5 | 0.00 | 0.00 | 0.00 | 74 | 1011.5 |
| 20260506092524 | 17 | 261 | 3.2 | 14.5 | 0.00 | 0.00 | 0.00 | 74 | 1011.5 |
| 20260506092435 | 17 | 160 | 3.2 | 14.5 | 0.00 | 0.00 | 0.00 | 74 | 1011.5 |
| 20260506092326 | 17 | 196 | 6.4 | 14.5 | 0.00 | 0.00 | 0.00 | 74 | 1011.4 |
| 20260506092226 | 17 | 151 | 6.4 | 14.5 | 0.00 | 0.00 | 0.00 | 74 | 1011.5 |
| 20260506092130 | 17 | 195 | 4.8 | 12.9 | 0.00 | 0.00 | 0.00 | 74 | 1011.5 |
| 20260506092032 | 17 | 228 | 4.8 | 12.9 | 0.00 | 0.00 | 0.00 | 74 | 1011.5 |
| 20260506091931 | 17 | 217 | 4.8 | 12.9 | 0.00 | 0.00 | 0.00 | 74 | 1011.5 |
| 20260506091843 | 17 | 192 | 3.2 | 12.9 | 0.00 | 0.00 | 0.00 | 74 | 1011.5 |
| 20260506091744 | 17 | 193 | 3.2 | 14.5 | 0.00 | 0.00 | 0.00 | 74 | 1011.5 |
| 20260506091620 | 17 | 194 | 3.2 | 14.5 | 0.00 | 0.00 | 0.00 | 74 | 1011.5 |
| 20260506091617 | 17 | 214 | 3.2 | 14.5 | 0.00 | 0.00 | 0.00 | 74 | 1011.6 |
| 20260506091429 | 17 | 175 | 3.2 | 14.5 | 0.00 | 0.00 | 0.00 | 74 | 1011.5 |
| 20260506091322 | 17 | 189 | 3.2 | 14.5 | 0.00 | 0.00 | 0.00 | 74 | 1011.6 |
| 20260506091224 | 17 | 186 | 3.2 | 14.5 | 0.00 | 0.00 | 0.00 | 74 | 1011.5 |
| 20260506091128 | 17 | 178 | 3.2 | 14.5 | 0.00 | 0.00 | 0.00 | 74 | 1011.6 |
| 20260506091016 | 17 | 162 | 4.8 | 14.5 | 0.00 | 0.00 | 0.00 | 74 | 1011.6 |
| 20260506090946 | 17 | 136 | 6.4 | 17.7 | 0.00 | 0.00 | 0.00 | 74 | 1011.6 |
| 20260506090834 | 17 | 223 | 6.4 | 17.7 | 0.00 | 0.00 | 0.00 | 74 | 1011.6 |
| 20260506090742 | 17 | 186 | 6.4 | 17.7 | 0.00 | 0.00 | 0.00 | 73 | 1011.5 |
| 20260506090646 | 17 | 166 | 4.8 | 17.7 | 0.00 | 0.00 | 0.00 | 73 | 1011.5 |
| 20260506090541 | 17 | 169 | 3.2 | 17.7 | 0.00 | 0.00 | 0.00 | 73 | 1011.5 |
| 20260506090427 | 17 | 239 | 3.2 | 17.7 | 0.00 | 0.00 | 0.00 | 73 | 1011.5 |
| 20260506090332 | 17 | 183 | 6.4 | 17.7 | 0.00 | 0.00 | 0.00 | 73 | 1011.6 |
| 20260506090233 | 17 | 92 | 8.0 | 17.7 | 0.00 | 0.00 | 0.00 | 73 | 1011.6 |
| 20260506090201 | 17 | 232 | 8.0 | 17.7 | 0.00 | 0.00 | 0.00 | 73 | 1011.7 |
| 20260506090127 | 17 | 160 | 6.4 | 19.3 | 0.00 | 0.00 | 0.00 | 74 | 1011.6 |
| 20260506085923 | 17 | 209 | 4.8 | 17.7 | 0.00 | 0.00 | 0.00 | 73 | 1011.6 |
| 20260506085844 | 17 | 169 | 6.4 | 17.7 | 0.00 | 0.00 | 0.00 | 73 | 1011.6 |
| 20260506085741 | 17 | 156 | 6.4 | 17.7 | 0.00 | 0.00 | 0.00 | 73 | 1011.5 |
| 20260506085647 | 17 | 238 | 6.4 | 17.7 | 0.00 | 0.00 | 0.00 | 73 | 1011.6 |
| 20260506085538 | 17 | 190 | 6.4 | 17.7 | 0.00 | 0.00 | 0.00 | 73 | 1011.4 |
| 20260506085435 | 17 | 149 | 4.8 | 16.1 | 0.00 | 0.00 | 0.00 | 73 | 1011.4 |
| 20260506085339 | 17 | 189 | 3.2 | 16.1 | 0.00 | 0.00 | 0.00 | 73 | 1011.5 |
| 20260506085223 | 17 | 234 | 3.2 | 16.1 | 0.00 | 0.00 | 0.00 | 73 | 1011.6 |
| 20260506085123 | 17 | 76 | 3.2 | 16.1 | 0.00 | 0.00 | 0.00 | 73 | 1011.4 |
| 20260506085032 | 17 | 178 | 4.8 | 16.1 | 0.00 | 0.00 | 0.00 | 73 | 1011.5 |
| 20260506084919 | 17 | 193 | 6.4 | 17.7 | 0.00 | 0.00 | 0.00 | 73 | 1011.5 |
| 20260506084835 | 17 | 229 | 4.8 | 14.5 | 0.00 | 0.00 | 0.00 | 73 | 1011.5 |
| 20260506084747 | 17 | 209 | 6.4 | 19.3 | 0.00 | 0.00 | 0.00 | 73 | 1011.4 |
| 20260506084645 | 17 | 186 | 6.4 | 19.3 | 0.00 | 0.00 | 0.00 | 73 | 1011.4 |
| 20260506084624 | 17 | 165 | 6.4 | 19.3 | 0.00 | 0.00 | 0.00 | 73 | 1011.5 |
| 20260506084424 | 17 | 170 | 6.4 | 25.7 | 0.00 | 0.00 | 0.00 | 73 | 1011.4 |
| 20260506084333 | 17 | 216 | 6.4 | 25.7 | 0.00 | 0.00 | 0.00 | 73 | 1011.4 |
| 20260506084245 | 17 | 144 | 8.0 | 25.7 | 0.00 | 0.00 | 0.00 | 73 | 1011.5 |
| 20260506084121 | 17 | 219 | 6.4 | 25.7 | 0.00 | 0.00 | 0.00 | 73 | 1011.4 |
| 20260506084026 | 17 | 242 | 8.0 | 25.7 | 0.00 | 0.00 | 0.00 | 73 | 1011.4 |
| 20260506083937 | 17 | 229 | 8.0 | 25.7 | 0.00 | 0.00 | 0.00 | 73 | 1011.4 |
| 20260506083809 | 17 | 191 | 8.0 | 25.7 | 0.00 | 0.00 | 0.00 | 73 | 1011.4 |
| 20260506083626 | 17 | 219 | 8.0 | 25.7 | 0.00 | 0.00 | 0.00 | 73 | 1011.3 |
| 20260506083519 | 17 | 196 | 4.8 | 14.5 | 0.00 | 0.00 | 0.00 | 73 | 1011.4 |
| 20260506083449 | 17 | 191 | 6.4 | 14.5 | 0.00 | 0.00 | 0.00 | 73 | 1011.4 |
| 20260506083327 | 17 | 209 | 4.8 | 14.5 | 0.00 | 0.00 | 0.00 | 73 | 1011.4 |
| 20260506083233 | 17 | 200 | 4.8 | 14.5 | 0.00 | 0.00 | 0.00 | 73 | 1011.4 |
| 20260506083143 | 17 | 223 | 6.4 | 14.5 | 0.00 | 0.00 | 0.00 | 73 | 1011.4 |
| 20260506083111 | 17 | 167 | 6.4 | 14.5 | 0.00 | 0.00 | 0.00 | 73 | 1011.4 |
| 20260506082943 | 17 | 173 | 6.4 | 14.5 | 0.00 | 0.00 | 0.00 | 73 | 1011.4 |
| 20260506082832 | 17 | 252 | 6.4 | 14.5 | 0.00 | 0.00 | 0.00 | 73 | 1011.3 |
| 20260506082734 | 17 | 150 | 4.8 | 14.5 | 0.00 | 0.00 | 0.00 | 72 | 1011.4 |
| 20260506082626 | 17 | 136 | 4.8 | 14.5 | 0.00 | 0.00 | 0.00 | 72 | 1011.5 |
| 20260506082529 | 17 | 267 | 4.8 | 14.5 | 0.00 | 0.00 | 0.00 | 72 | 1011.4 |
| 20260506082420 | 17 | 182 | 6.4 | 14.5 | 0.00 | 0.00 | 0.00 | 72 | 1011.4 |
| 20260506082340 | 17 | 194 | 6.4 | 14.5 | 0.00 | 0.00 | 0.00 | 72 | 1011.4 |
| 20260506082248 | 17 | 160 | 4.8 | 16.1 | 0.00 | 0.00 | 0.00 | 72 | 1011.4 |
| 20260506082144 | 17 | 258 | 3.2 | 17.7 | 0.00 | 0.00 | 0.00 | 72 | 1011.4 |
| 20260506082035 | 17 | 182 | 3.2 | 17.7 | 0.00 | 0.00 | 0.00 | 72 | 1011.4 |
| 20260506081934 | 17 | 208 | 4.8 | 17.7 | 0.00 | 0.00 | 0.00 | 72 | 1011.4 |
| 20260506081843 | 17 | 163 | 4.8 | 17.7 | 0.00 | 0.00 | 0.00 | 72 | 1011.4 |